GFSNGP_prec_sndepth_000.txt.gz
Snowfall_Accumulation
0.0 0.0 0.0 0.0 0.0 0.0 0.0 0.0 0.9 0.0 0.0 0.0 0.0 0.0 0.0 0.0 0.0 0.0 0.0 0.0 0.0 0.0 0.0 0.0 0.0 0.0 0.0 0.0 0.0 0.0 0.0 0.0 0.0 0.0 0.0 0.0 0.0 0.0 0.0 0.0 0.0 0.0 0.0 0.0
0.2 0.0 0.0 0.1 0.0 0.0 0.0 0.0 0.0 0.0 0.0 0.0 0.0 0.0 0.0 0.0 0.0 0.0 0.0 0.0 0.0 0.0 0.0 0.0 0.0 0.0 0.0 0.0 0.0 0.0 0.0 0.0 0.0 0.0 0.0 0.0 0.0 0.0 0.0 0.0 0.0 0.0 0.0 0.0
0.6 0.0 0.3 3.2 0.1 0.0 0.0 0.0 0.0 0.5 0.0 0.0 0.0 0.0 0.0 0.0 0.0 0.0 0.0 0.0 0.0 0.0 0.0 0.0 0.0 0.0 0.0 0.0 0.0 0.0 0.0 0.0 0.0 0.0 0.0 0.0 0.0 0.0 0.0 0.0 0.0 0.0 0.0 0.0
4.5 1.9 7.4 0.1 0.0 0.0 0.0 0.0 0.0 0.0 0.0 0.0 0.0 0.0 0.0 0.0 0.0 0.0 0.0 0.0 0.0 0.0 0.0 0.0 0.0 0.0 0.0 0.0 0.0 0.0 0.0 0.0 0.0 0.0 0.0 0.0 0.0 0.0 0.0 0.0 0.0 0.0 0.0 0.0
9.3 2.0 0.2 0.0 0.0 0.1 0.1 0.1 0.0 0.0 0.0 0.0 0.0 0.0 0.0 0.0 0.0 0.0 0.0 0.0 0.0 0.0 0.0 0.0 0.0 0.0 0.0 0.0 0.0 0.0 0.0 0.0 0.0 0.0 0.0 0.0 0.0 0.0 0.0 0.0 0.0 0.0 0.0 0.0
3.8 5.3 7.2 0.1 0.0 0.0 0.0 0.2 0.0 0.0 0.0 0.0 0.0 1.4 0.0 0.0 0.0 0.0 0.0 0.0 0.0 0.0 0.0 0.0 0.0 0.0 0.0 0.0 0.0 0.0 0.0 0.0 0.0 0.0 0.0 0.0 0.0 0.0 0.0 0.0 0.0 0.0 0.1 0.0
4.4 7.8 2.1 0.0 0.0 0.0 1.9 0.1 0.0 0.0 0.0 0.0 0.0 0.3 0.0 0.0 0.0 0.0 0.0 0.0 0.0 0.0 0.0 0.0 0.0 0.0 0.0 0.0 0.0 0.0 0.0 0.0 0.0 0.0 0.0 0.0 0.0 0.0 0.0 0.0 0.0 0.4 0.6 0.4
4.0 7.1 7.3 0.0 0.0 1.1 0.6 0.1 0.0 0.0 0.0 0.0 0.0 0.0 0.0 0.0 0.0 0.0 0.0 0.0 0.0 0.0 0.0 0.0 0.0 0.0 0.0 0.0 0.0 0.0 0.0 0.0 0.0 0.0 0.0 0.0 0.0 0.0 0.0 0.0 0.1 0.6 5.1 2.0
0.3 1.7 0.0 0.0 0.0 0.0 0.0 0.0 0.0 0.0 0.0 0.0 0.0 0.0 0.0 0.0 0.0 0.0 0.0 0.0 0.0 0.0 0.0 0.0 0.0 0.0 0.0 0.0 0.0 0.0 0.0 0.0 0.0 0.0 0.0 0.0 0.0 0.0 0.0 0.1 1.1 1.3 1.7 3.6
0.5 0.0 0.0 0.0 0.0 0.0 0.0 0.0 0.0 0.0 0.0 0.0 0.0 0.0 0.0 0.0 0.0 0.0 0.0 0.0 0.0 0.0 0.0 0.0 0.0 0.0 0.0 0.0 0.0 0.0 0.0 0.0 0.0 0.0 0.0 0.0 0.0 0.0 0.0 1.1 1.9 1.8 2.4 2.1
0.0 0.0 0.0 0.0 0.0 0.0 0.0 0.0 0.0 0.0 0.0 0.0 0.0 0.0 0.0 0.0 0.0 0.0 0.0 0.0 0.0 0.0 0.0 0.0 0.0 0.0 0.0 0.0 0.0 0.0 0.0 0.0 0.0 0.5 0.1 0.0 0.0 0.0 0.9 0.0 0.8 2.2 2.2 2.4
1.9 0.0 0.0 0.0 0.0 0.0 0.0 0.0 0.0 0.0 0.0 0.0 0.0 0.0 0.0 0.0 0.0 0.0 0.0 0.0 0.0 0.0 0.0 0.0 0.0 0.0 0.1 0.1 0.1 0.2 0.1 0.6 0.9 1.1 0.9 0.0 0.0 0.0 nan nan nan nan nan 10.1
0.0 0.0 0.0 0.0 0.0 0.0 0.0 0.0 0.0 0.0 0.0 0.0 0.0 0.0 0.0 0.0 0.0 nan 0.0 0.0 0.0 0.0 0.0 0.0 0.1 0.1 0.1 0.2 0.2 0.5 0.4 0.3 1.3 1.2 1.2 1.3 1.6 1.7 2.4 1.8 nan nan nan nan
0.0 0.0 0.0 0.0 0.0 0.0 0.0 0.0 0.0 0.0 0.0 0.0 0.0 0.0 0.0 0.0 0.0 0.0 0.0 0.0 0.0 0.0 0.0 0.1 0.2 0.2 0.1 0.1 0.2 0.5 0.4 0.3 1.6 1.4 1.4 1.9 3.0 3.1 3.2 4.6 7.7 6.4 nan nan
0.0 0.0 0.0 0.0 0.0 0.0 0.0 0.0 0.0 0.0 0.0 0.0 0.0 0.0 0.0 0.0 0.0 0.0 0.0 0.0 0.0 0.0 0.0 0.0 0.0 0.0 0.0 0.0 0.0 0.3 0.5 1.4 3.1 4.5 4.6 4.3 4.9 4.8 4.2 4.9 5.0 4.7 4.2 1.8
0.0 0.0 0.0 0.0 0.0 0.0 0.0 0.0 0.0 0.0 0.0 0.0 0.0 0.0 0.0 0.0 0.0 0.0 0.0 0.0 0.8 0.9 0.2 5.1 1.9 0.1 0.0 0.0 0.0 0.0 0.9 0.3 2.5 3.9 4.4 4.5 5.0 4.6 4.0 5.0 5.8 5.7 5.1 5.4
0.2 0.2 0.0 0.0 0.0 0.0 0.0 0.0 0.0 0.0 0.0 0.2 0.0 0.3 0.3 0.7 0.7 0.4 0.4 0.8 3.7 4.4 3.1 2.8 1.5 0.0 0.3 0.0 0.0 0.7 1.5 3.1 0.6 4.6 3.2 3.8 5.0 6.3 4.7 6.0 6.4 6.1 10.5 19.3
0.0 0.0 0.0 0.0 0.0 0.0 0.1 0.2 0.3 0.5 0.2 0.0 3.9 5.9 6.9 5.9 2.9 2.5 2.3 2.6 4.1 3.8 2.2 1.8 1.2 0.3 0.1 0.1 0.5 1.1 2.8 2.9 3.7 5.0 4.4 6.9 5.0 4.8 6.7 6.1 6.1 7.1 9.5 24.2
0.0 0.0 0.0 0.0 0.0 0.4 0.6 0.9 1.9 2.0 4.7 4.1 6.1 5.2 4.8 5.1 2.8 2.4 2.4 6.7 8.0 2.7 1.3 1.6 0.0 1.0 0.9 0.4 0.7 2.6 4.4 8.8 4.8 3.1 4.0 7.1 11.1 5.5 9.2 11.4 9.5 12.6 7.9 8.6
0.0 0.0 0.0 0.0 0.0 2.8 1.4 3.4 3.6 1.1 0.3 1.5 6.0 7.9 4.2 6.0 6.3 6.9 4.1 3.1 2.1 2.7 1.4 0.8 1.2 1.3 1.5 0.7 2.3 2.1 7.5 10.1 6.4 9.5 12.1 6.7 16.9 23.9 15.9 7.9 9.1 14.2 25.8 19.7
0.2 0.9 2.1 3.0 3.6 3.8 4.6 4.8 4.1 3.6 1.3 5.4 8.4 9.6 8.2 4.3 5.8 8.5 6.0 2.6 0.7 2.0 0.8 0.9 1.2 1.4 0.7 0.8 0.9 12.8 11.8 14.9 15.0 10.2 15.0 19.9 26.7 21.6 22.5 24.2 22.0 25.9 31.3 24.4
0.2 1.3 3.2 2.2 3.8 1.9 3.0 2.5 2.3 3.5 3.6 6.7 11.6 14.1 9.6 3.1 5.1 5.0 6.8 3.4 1.5 2.9 2.9 3.2 2.0 3.9 3.3 5.9 3.9 14.1 10.6 8.5 11.2 11.3 12.0 18.2 20.8 31.6 33.2 29.2 26.6 30.9 29.8 29.8
0.5 0.8 1.8 2.9 2.9 1.5 2.2 2.5 4.8 5.0 8.6 7.5 9.0 5.5 4.6 2.5 2.8 5.1 4.8 1.0 2.2 4.9 2.4 5.9 5.5 6.1 6.4 14.9 15.7 17.5 16.5 15.8 15.3 13.5 14.4 21.4 22.0 39.3 22.7 22.5 26.5 26.9 35.7 23.9
0.6 0.3 0.8 1.9 2.1 1.7 1.7 0.4 0.9 2.0 6.7 3.2 4.5 7.1 3.3 8.0 11.8 2.7 3.7 6.1 6.3 21.4 14.1 14.4 11.2 6.6 7.2 17.8 17.8 20.1 18.3 19.4 18.9 20.7 10.4 9.0 27.2 23.1 19.8 30.5 18.2 24.8 27.3 22.8
0.7 0.5 1.2 1.7 1.0 1.0 0.3 0.3 0.8 1.0 1.1 1.2 0.9 1.1 1.7 2.8 9.9 5.7 9.1 8.4 7.1 6.7 10.9 8.7 6.5 7.2 19.5 21.3 20.5 20.0 20.3 17.4 20.9 23.6 16.2 23.6 21.9 31.7 29.7 24.2 28.4 29.2 30.7 26.4
0.2 0.7 0.6 0.2 0.6 0.8 1.1 1.2 3.0 2.3 2.8 7.2 4.8 14.7 12.2 6.6 5.9 5.7 7.6 7.3 6.0 6.6 6.9 16.1 20.5 20.3 19.4 13.0 17.3 18.1 13.9 11.1 15.2 16.7 19.0 18.9 18.2 15.5 19.8 18.1 25.4 32.3 40.7 44.7
0.9 0.3 1.3 1.1 1.1 1.4 2.0 1.7 4.8 6.1 8.1 11.6 9.5 10.4 6.5 10.1 13.3 7.8 7.8 12.5 13.6 12.5 15.7 19.3 16.5 11.1 9.7 16.1 14.6 13.0 12.1 13.7 10.9 10.1 23.6 27.6 26.6 36.6 31.7 31.2 36.7 38.4 35.1 30.1

GFSNGP_prec_sndepth_003.txt.gz
Snowfall_Accumulation
0.0 0.0 0.0 0.0 0.0 0.0 0.0 0.0 0.9 0.0 0.0 0.0 0.0 0.0 0.0 0.0 0.0 0.0 0.0 0.0 0.0 0.0 0.0 0.0 0.0 0.0 0.0 0.0 0.0 0.0 0.0 0.0 0.0 0.0 0.0 0.0 0.0 0.0 0.0 0.0 0.0 0.0 0.0 0.0
0.2 0.0 0.0 0.1 0.0 0.0 0.0 0.0 0.0 0.0 0.0 0.0 0.0 0.0 0.0 0.0 0.0 0.0 0.0 0.0 0.0 0.0 0.0 0.0 0.0 0.0 0.0 0.0 0.0 0.0 0.0 0.0 0.0 0.0 0.0 0.0 0.0 0.0 0.0 0.0 0.0 0.0 0.0 0.0
0.6 0.0 0.3 3.2 0.1 0.0 0.0 0.0 0.0 0.5 0.0 0.0 0.0 0.0 0.0 0.0 0.0 0.0 0.0 0.0 0.0 0.0 0.0 0.0 0.0 0.0 0.0 0.0 0.0 0.0 0.0 0.0 0.0 0.0 0.0 0.0 0.0 0.0 0.0 0.0 0.0 0.0 0.0 0.0
4.5 1.9 7.4 0.1 0.0 0.0 0.0 0.0 0.0 0.0 0.0 0.0 0.0 0.0 0.0 0.0 0.0 0.0 0.0 0.0 0.0 0.0 0.0 0.0 0.0 0.0 0.0 0.0 0.0 0.0 0.0 0.0 0.0 0.0 0.0 0.0 0.0 0.0 0.0 0.0 0.0 0.0 0.0 0.0
9.3 2.0 0.2 0.0 0.0 0.1 0.1 0.1 0.0 0.0 0.0 0.0 0.0 0.0 0.0 0.0 0.0 0.0 0.0 0.0 0.0 0.0 0.0 0.0 0.0 0.0 0.0 0.0 0.0 0.0 0.0 0.0 0.0 0.0 0.0 0.0 0.0 0.0 0.0 0.0 0.0 0.0 0.0 0.0
3.8 5.3 7.2 0.1 0.0 0.0 0.0 0.2 0.0 0.0 0.0 0.0 0.0 1.4 0.0 0.0 0.0 0.0 0.0 0.0 0.0 0.0 0.0 0.0 0.0 0.0 0.0 0.0 0.0 0.0 0.0 0.0 0.0 0.0 0.0 0.0 0.0 0.0 0.0 0.0 0.0 0.0 0.1 0.0
4.4 7.8 2.1 0.0 0.0 0.0 1.9 0.1 0.0 0.0 0.0 0.0 0.0 0.2 0.0 0.0 0.0 0.0 0.0 0.0 0.0 0.0 0.0 0.0 0.0 0.0 0.0 0.0 0.0 0.0 0.0 0.0 0.0 0.0 0.0 0.0 0.0 0.0 0.0 0.0 0.0 0.4 0.6 0.4
4.0 7.1 7.3 0.0 0.0 1.1 0.6 0.1 0.0 0.0 0.0 0.0 0.0 0.0 0.0 0.0 0.0 0.0 0.0 0.0 0.0 0.0 0.0 0.0 0.0 0.0 0.0 0.0 0.0 0.0 0.0 0.0 0.0 0.0 0.0 0.0 0.0 0.0 0.0 0.0 0.1 0.6 5.1 2.0
0.3 1.7 0.0 0.0 0.0 0.0 0.0 0.0 0.0 0.0 0.0 0.0 0.0 0.0 0.0 0.0 0.0 0.0 0.0 0.0 0.0 0.0 0.0 0.0 0.0 0.0 0.0 0.0 0.0 0.0 0.0 0.0 0.0 0.0 0.0 0.0 0.0 0.0 0.0 0.1 1.1 1.3 1.7 3.6
0.5 0.0 0.0 0.0 0.0 0.0 0.0 0.0 0.0 0.0 0.0 0.0 0.0 0.0 0.0 0.0 0.0 0.0 0.0 0.0 0.0 0.0 0.0 0.0 0.0 0.0 0.0 0.0 0.0 0.0 0.0 0.0 0.0 0.0 0.0 0.0 0.0 0.0 0.0 1.1 1.9 1.8 2.4 2.1
0.0 0.0 0.0 0.0 0.0 0.0 0.0 0.0 0.0 0.0 0.0 0.0 0.0 0.0 0.0 0.0 0.0 0.0 0.0 0.0 0.0 0.0 0.0 0.0 0.0 0.0 0.0 0.0 0.0 0.0 0.0 0.0 0.0 0.5 0.1 0.0 0.0 0.0 0.9 0.0 0.8 2.2 2.2 2.4
1.8 0.0 0.0 0.0 0.0 0.0 0.0 0.0 0.0 0.0 0.0 0.0 0.0 0.0 0.0 0.0 0.0 0.0 0.0 0.0 0.0 0.0 0.0 0.0 0.0 0.0 0.1 0.1 0.1 0.2 0.1 0.6 0.9 1.3 0.9 0.0 0.0 0.0 nan nan nan nan nan 10.1
0.0 0.0 0.0 0.0 0.0 0.0 0.0 0.0 0.0 0.0 0.0 0.0 0.0 0.0 0.0 0.0 0.0 nan 0.0 0.0 0.0 0.0 0.0 0.0 0.1 0.1 0.1 0.2 0.2 0.5 0.4 0.3 1.5 1.5 1.2 1.3 1.6 1.7 2.4 1.8 nan nan nan nan
0.0 0.0 0.0 0.0 0.0 0.0 0.0 0.0 0.0 0.0 0.0 0.0 0.0 0.0 0.0 0.0 0.0 0.0 0.0 0.0 0.0 0.0 0.0 0.1 0.2 0.2 0.1 0.1 0.2 0.5 0.4 0.3 1.7 1.5 1.4 1.9 3.0 3.1 3.2 4.6 7.7 6.4 nan nan
0.0 0.0 0.0 0.0 0.0 0.0 0.0 0.0 0.0 0.0 0.0 0.0 0.0 0.0 0.0 0.0 0.0 0.0 0.0 0.0 0.0 0.0 0.0 0.0 0.0 0.0 0.0 0.0 0.0 0.3 0.5 1.4 3.1 4.5 4.6 4.3 4.9 4.8 4.2 4.9 5.0 4.7 4.2 1.8
0.0 0.0 0.0 0.0 0.0 0.0 0.0 0.0 0.0 0.0 0.0 0.0 0.0 0.0 0.0 0.0 0.0 0.0 0.0 0.0 0.8 0.9 0.2 5.1 1.9 0.1 0.0 0.0 0.0 0.0 0.9 0.3 2.5 3.9 4.4 4.5 5.0 4.6 4.0 5.0 5.8 5.7 5.1 5.4
0.2 0.2 0.0 0.0 0.0 0.0 0.0 0.0 0.0 0.0 0.0 0.2 0.0 0.3 0.3 0.7 0.7 0.4 0.4 0.8 3.7 4.4 3.1 2.8 1.5 0.0 0.2 0.0 0.0 0.7 1.5 3.1 0.6 4.6 3.2 3.8 5.0 6.3 4.7 6.0 6.4 6.1 10.5 19.2
0.0 0.0 0.0 0.0 0.0 0.0 0.1 0.2 0.3 0.5 0.2 0.0 3.9 5.9 6.9 5.9 2.9 2.6 2.3 2.6 4.1 3.8 2.2 1.8 1.2 0.3 0.1 0.0 0.5 1.1 2.8 2.9 3.7 5.0 4.4 6.9 5.0 4.8 6.7 6.1 6.1 7.1 9.5 24.1
0.0 0.0 0.0 0.0 0.0 0.3 0.6 0.9 1.9 2.0 4.7 4.1 6.1 5.2 4.8 5.1 2.8 2.4 2.4 6.8 8.0 2.7 1.3 1.6 0.0 1.0 0.9 0.4 0.7 2.7 4.5 8.9 4.8 3.1 4.0 7.1 11.1 5.5 9.2 11.5 9.5 12.5 7.9 8.6
0.0 0.0 0.0 0.0 0.0 2.8 1.4 3.4 3.6 1.1 0.3 1.5 6.0 7.9 4.2 6.0 6.3 6.9 4.1 3.1 2.1 2.7 1.4 0.8 1.2 1.4 1.5 0.7 2.3 2.2 7.6 10.2 6.4 9.5 12.1 6.7 16.8 23.8 15.8 7.9 9.1 14.2 25.7 19.7
0.2 0.9 2.1 3.0 3.6 3.8 4.5 4.8 4.1 3.6 1.3 5.4 8.4 9.6 8.2 4.3 5.8 8.5 6.0 2.6 0.7 2.0 0.8 0.9 1.2 1.4 0.6 0.7 0.9 12.4 11.9 14.9 15.0 10.2 15.0 19.9 26.5 21.5 22.4 24.1 21.9 25.7 31.1 24.3
0.2 1.3 3.2 2.2 3.8 1.9 3.0 2.5 2.3 3.5 3.6 6.7 11.6 14.0 9.6 3.1 5.1 5.0 6.8 3.4 1.5 2.9 2.9 3.2 2.0 3.9 3.3 5.9 3.7 13.7 10.6 8.6 11.2 11.3 12.0 18.1 20.8 31.3 32.9 29.0 26.4 30.7 29.6 29.6
0.5 0.8 1.8 2.9 2.9 1.5 2.2 2.5 4.8 5.1 8.6 7.5 9.0 5.5 4.6 2.5 2.8 5.1 4.8 1.0 2.2 4.9 2.4 5.9 5.5 6.1 6.4 13.9 14.3 16.7 16.4 15.8 15.3 13.5 14.3 21.3 21.8 38.8 22.5 22.3 26.2 26.7 35.3 23.7
0.6 0.3 0.8 1.9 2.1 1.7 1.7 0.4 0.9 2.0 6.7 3.2 4.5 7.1 3.3 8.0 11.1 2.7 3.7 6.1 6.3 21.3 13.9 13.5 11.0 6.6 7.2 16.2 16.2 19.7 18.3 19.4 18.9 20.7 10.5 9.1 27.3 23.2 19.9 30.3 18.1 24.6 27.0 22.7
0.7 0.5 1.2 1.7 1.0 1.0 0.3 0.3 0.8 1.0 1.1 1.2 0.9 1.1 1.7 2.7 9.8 5.6 9.1 8.3 7.1 6.7 10.9 8.7 6.5 7.2 18.2 19.4 19.1 20.0 20.3 17.5 20.9 23.7 16.3 23.7 22.0 31.7 29.7 24.2 28.3 29.0 30.4 26.2
0.2 0.7 0.6 0.2 0.6 0.8 1.1 1.2 3.0 2.3 2.8 7.2 4.8 14.7 12.2 6.6 5.9 5.7 7.6 7.3 6.0 6.7 7.0 16.0 20.4 20.0 18.7 12.7 17.0 17.9 13.9 11.1 15.2 16.7 19.0 19.0 18.3 15.6 19.9 18.3 25.5 32.2 40.4 44.1
0.9 0.3 1.3 1.1 1.1 1.4 2.0 1.7 4.8 6.1 8.1 11.6 9.5 10.4 6.5 10.1 13.3 7.8 7.8 12.5 13.6 12.5 15.7 19.3 16.4 11.1 9.7 16.1 14.6 13.0 12.1 13.6 11.0 10.1 23.4 27.5 26.6 36.3 31.6 31.2 36.5 38.3 35.0 30.0

GFSNGP_prec_sndepth_006.txt.gz
Snowfall_Accumulation
0.0 0.0 0.0 0.0 0.0 0.0 0.0 0.0 0.9 0.0 0.0 0.0 0.0 0.0 0.0 0.0 0.0 0.0 0.0 0.0 0.0 0.0 0.0 0.0 0.0 0.0 0.0 0.0 0.0 0.0 0.0 0.0 0.0 0.0 0.0 0.0 0.0 0.0 0.0 0.0 0.0 0.0 0.0 0.0
0.2 0.0 0.0 0.1 0.0 0.0 0.0 0.0 0.0 0.0 0.0 0.0 0.0 0.0 0.0 0.0 0.0 0.0 0.0 0.0 0.0 0.0 0.0 0.0 0.0 0.0 0.0 0.0 0.0 0.0 0.0 0.0 0.0 0.0 0.0 0.0 0.0 0.0 0.0 0.0 0.0 0.0 0.0 0.0
0.6 0.0 0.3 3.2 0.1 0.0 0.0 0.0 0.0 0.5 0.0 0.0 0.0 0.0 0.0 0.0 0.0 0.0 0.0 0.0 0.0 0.0 0.0 0.0 0.0 0.0 0.0 0.0 0.0 0.0 0.0 0.0 0.0 0.0 0.0 0.0 0.0 0.0 0.0 0.0 0.0 0.0 0.0 0.0
4.5 1.9 7.4 0.1 0.0 0.0 0.0 0.0 0.0 0.0 0.0 0.0 0.0 0.0 0.0 0.0 0.0 0.0 0.0 0.0 0.0 0.0 0.0 0.0 0.0 0.0 0.0 0.0 0.0 0.0 0.0 0.0 0.0 0.0 0.0 0.0 0.0 0.0 0.0 0.0 0.0 0.0 0.0 0.0
9.3 2.0 0.2 0.0 0.0 0.1 0.1 0.1 0.0 0.0 0.0 0.0 0.0 0.0 0.0 0.0 0.0 0.0 0.0 0.0 0.0 0.0 0.0 0.0 0.0 0.0 0.0 0.0 0.0 0.0 0.0 0.0 0.0 0.0 0.0 0.0 0.0 0.0 0.0 0.0 0.0 0.0 0.0 0.0
3.8 5.3 7.2 0.1 0.0 0.0 0.0 0.2 0.0 0.0 0.0 0.0 0.0 1.4 0.0 0.0 0.0 0.0 0.0 0.0 0.0 0.0 0.0 0.0 0.0 0.0 0.0 0.0 0.0 0.0 0.0 0.0 0.0 0.0 0.0 0.0 0.0 0.0 0.0 0.0 0.0 0.0 0.1 0.0
4.4 7.8 2.1 0.0 0.0 0.0 1.9 0.1 0.0 0.0 0.0 0.0 0.0 0.2 0.0 0.0 0.0 0.0 0.0 0.0 0.0 0.0 0.0 0.0 0.0 0.0 0.0 0.0 0.0 0.0 0.0 0.0 0.0 0.0 0.0 0.0 0.0 0.0 0.0 0.0 0.0 0.4 0.6 0.4
4.0 7.1 7.3 0.0 0.0 1.1 0.6 0.1 0.0 0.0 0.0 0.0 0.0 0.0 0.0 0.0 0.0 0.0 0.0 0.0 0.0 0.0 0.0 0.0 0.0 0.0 0.0 0.0 0.0 0.0 0.0 0.0 0.0 0.0 0.0 0.0 0.0 0.0 0.0 0.0 0.1 0.6 5.1 2.0
0.3 1.7 0.0 0.0 0.0 0.0 0.0 0.0 0.0 0.0 0.0 0.0 0.0 0.0 0.0 0.0 0.0 0.0 0.0 0.0 0.0 0.0 0.0 0.0 0.0 0.0 0.0 0.0 0.0 0.0 0.0 0.0 0.0 0.0 0.0 0.0 0.0 0.0 0.0 0.1 1.1 1.3 1.7 3.6
0.5 0.0 0.0 0.0 0.0 0.0 0.0 0.0 0.0 0.0 0.0 0.0 0.0 0.0 0.0 0.0 0.0 0.0 0.0 0.0 0.0 0.0 0.0 0.0 0.0 0.0 0.0 0.0 0.0 0.0 0.0 0.0 0.0 0.0 0.0 0.0 0.0 0.0 0.0 1.1 1.9 1.8 2.4 2.1
0.0 0.0 0.0 0.0 0.0 0.0 0.0 0.0 0.0 0.0 0.0 0.0 0.0 0.0 0.0 0.0 0.0 0.0 0.0 0.0 0.0 0.0 0.0 0.0 0.0 0.0 0.0 0.0 0.0 0.0 0.0 0.0 0.0 0.5 0.1 0.0 0.0 0.0 0.9 0.0 0.8 2.2 2.2 2.4
1.8 0.0 0.0 0.0 0.0 0.0 0.0 0.0 0.0 0.0 0.0 0.0 0.0 0.0 0.0 0.0 0.0 0.0 0.0 0.0 0.0 0.0 0.0 0.0 0.0 0.0 0.1 0.1 0.1 0.2 0.1 0.6 0.9 1.3 1.0 0.0 0.0 0.0 nan nan nan nan nan 10.0
0.0 0.0 0.0 0.0 0.0 0.0 0.0 0.0 0.0 0.0 0.0 0.0 0.0 0.0 0.0 0.0 0.0 nan 0.0 0.0 0.0 0.0 0.0 0.0 0.1 0.1 0.1 0.2 0.2 0.5 0.4 0.3 1.5 1.6 1.5 1.4 1.6 1.6 2.4 1.8 nan nan nan nan
0.0 0.0 0.0 0.0 0.0 0.0 0.0 0.0 0.0 0.0 0.0 0.0 0.0 0.0 0.0 0.0 0.0 0.0 0.0 0.0 0.0 0.0 0.0 0.1 0.2 0.2 0.1 0.1 0.2 0.5 0.4 0.3 1.7 1.5 1.6 2.0 3.1 3.1 3.2 4.6 7.7 6.4 nan nan
0.0 0.0 0.0 0.0 0.0 0.0 0.0 0.0 0.0 0.0 0.0 0.0 0.0 0.0 0.0 0.0 0.0 0.0 0.0 0.0 0.0 0.0 0.0 0.0 0.0 0.0 0.0 0.0 0.0 0.3 0.6 1.4 3.1 4.5 4.6 4.3 4.9 4.8 4.2 4.9 5.0 4.7 4.2 1.8
0.0 0.0 0.0 0.0 0.0 0.0 0.0 0.0 0.0 0.1 0.1 0.0 0.0 0.0 0.0 0.0 0.0 0.0 0.0 0.0 0.8 0.9 0.2 5.1 1.9 0.1 0.0 0.0 0.0 0.0 0.9 0.3 2.5 3.9 4.4 4.5 5.0 4.6 4.0 5.0 5.8 5.7 5.1 5.5
0.2 0.2 0.0 0.0 0.0 0.0 0.0 0.0 0.0 0.0 0.0 0.2 0.0 0.3 0.3 0.7 0.7 0.4 0.4 0.8 3.8 4.4 3.2 2.8 1.5 0.0 0.2 0.0 0.0 0.6 1.5 3.1 0.6 4.6 3.2 3.8 5.0 6.3 4.7 6.0 6.4 6.1 10.5 19.2
0.0 0.0 0.0 0.0 0.0 0.0 0.1 0.1 0.3 0.5 0.2 0.0 3.9 5.9 6.9 5.9 2.9 2.6 2.3 2.7 4.1 3.8 2.3 1.8 1.2 0.3 0.1 0.0 0.5 1.1 2.9 3.0 3.8 5.0 4.4 6.9 5.0 4.8 6.7 6.1 6.1 7.2 9.5 24.0
0.0 0.0 0.0 0.0 0.0 0.3 0.5 0.9 1.9 2.0 4.7 4.1 6.1 5.2 4.8 5.1 2.8 2.4 2.4 6.8 8.0 2.7 1.3 1.6 0.0 1.0 0.9 0.4 0.7 2.7 4.5 8.9 4.9 3.2 4.2 7.2 11.1 5.5 9.2 11.4 9.5 12.5 7.9 8.6
0.0 0.0 0.0 0.0 0.0 2.8 1.4 3.4 3.6 1.1 0.3 1.5 6.0 7.9 4.2 6.0 6.3 6.9 4.1 3.1 2.1 2.7 1.4 0.9 1.2 1.4 1.5 0.7 2.3 2.2 7.6 10.2 6.6 9.6 12.2 6.8 16.8 23.6 15.8 7.9 9.2 14.2 25.5 19.6
0.2 0.9 2.1 3.0 3.6 3.8 4.5 4.8 4.1 3.6 1.3 5.4 8.4 9.6 8.2 4.3 5.8 8.4 6.0 2.6 0.7 2.0 0.8 0.9 1.2 1.4 0.7 0.7 0.9 12.0 11.8 14.9 15.1 10.3 15.0 19.8 26.4 21.4 22.3 24.0 21.8 25.6 30.8 24.1
0.2 1.3 3.2 2.2 3.8 1.9 3.0 2.5 2.3 3.5 3.6 6.7 11.6 14.0 9.6 3.1 5.1 5.0 6.8 3.4 1.5 2.9 2.9 3.2 2.0 3.9 3.3 5.9 3.7 13.0 10.6 8.6 11.3 11.4 12.0 18.1 20.7 31.1 32.6 28.7 26.4 30.5 29.4 29.4
0.5 0.8 1.8 2.9 2.9 1.5 2.2 2.5 4.8 5.1 8.6 7.5 9.0 5.5 4.6 2.5 2.8 5.1 4.8 1.0 2.3 4.9 2.5 5.9 5.5 6.1 6.4 13.9 13.7 15.5 16.1 15.8 15.4 13.7 14.4 21.4 22.0 38.7 22.8 22.5 26.2 26.7 35.1 23.6
0.6 0.3 0.8 1.9 2.1 1.7 1.7 0.4 0.9 2.0 6.7 3.2 4.5 7.1 3.3 8.0 11.1 2.7 3.5 6.1 6.3 21.3 13.9 13.5 10.9 6.6 7.2 15.6 15.6 19.6 18.3 19.4 19.0 20.7 10.6 9.1 27.3 23.2 20.0 30.3 18.4 24.7 27.1 22.8
0.7 0.5 1.2 1.7 1.0 1.0 0.3 0.3 0.8 1.0 1.1 1.2 0.9 1.2 1.7 2.7 9.7 5.3 9.0 8.3 7.1 6.7 10.9 8.7 6.5 7.2 18.2 19.3 19.0 19.9 20.4 17.5 20.8 23.6 16.3 23.6 22.0 31.6 29.5 24.2 28.2 28.9 30.4 26.3
0.2 0.7 0.6 0.2 0.6 0.8 1.1 1.2 3.0 2.3 2.7 7.2 4.7 14.7 12.2 6.6 5.9 5.7 7.6 7.3 6.0 6.7 7.1 16.2 20.3 19.9 18.7 12.7 17.0 17.8 13.9 11.1 15.2 16.7 19.0 18.9 18.2 15.6 19.9 18.2 25.4 31.9 40.1 43.8
0.9 0.3 1.3 1.1 1.1 1.4 2.0 1.7 4.8 6.0 8.1 11.6 9.5 10.4 6.5 10.1 13.2 7.8 7.8 12.6 13.8 12.8 15.9 19.4 16.5 11.1 9.7 16.1 14.6 13.0 12.1 13.6 11.0 10.1 23.4 27.4 26.4 36.1 31.4 31.0 36.2 37.9 34.7 30.0

GFSNGP_prec_sndepth_009.txt.gz
Snowfall_Accumulation
0.0 0.0 0.0 0.0 0.0 0.0 0.0 0.0 0.8 0.0 0.0 0.0 0.0 0.0 0.0 0.0 0.0 0.0 0.0 0.0 0.0 0.0 0.0 0.0 0.0 0.0 0.0 0.0 0.0 0.0 0.0 0.0 0.0 0.0 0.0 0.0 0.0 0.0 0.0 0.0 0.0 0.0 0.0 0.0
0.2 0.0 0.0 0.1 0.0 0.0 0.0 0.0 0.0 0.0 0.0 0.0 0.0 0.0 0.0 0.0 0.0 0.0 0.0 0.0 0.0 0.0 0.0 0.0 0.0 0.0 0.0 0.0 0.0 0.0 0.0 0.0 0.0 0.0 0.0 0.0 0.0 0.0 0.0 0.0 0.0 0.0 0.0 0.0
0.6 0.0 0.3 3.2 0.1 0.0 0.0 0.0 0.0 0.5 0.0 0.0 0.0 0.0 0.0 0.0 0.0 0.0 0.0 0.0 0.0 0.0 0.0 0.0 0.0 0.0 0.0 0.0 0.0 0.0 0.0 0.0 0.0 0.0 0.0 0.0 0.0 0.0 0.0 0.0 0.0 0.0 0.0 0.0
4.4 1.9 7.3 0.1 0.0 0.0 0.0 0.0 0.0 0.0 0.0 0.0 0.0 0.0 0.0 0.0 0.0 0.0 0.0 0.0 0.0 0.0 0.0 0.0 0.0 0.0 0.0 0.0 0.0 0.0 0.0 0.0 0.0 0.0 0.0 0.0 0.0 0.0 0.0 0.0 0.0 0.0 0.0 0.0
9.2 1.9 0.2 0.0 0.0 0.0 0.1 0.1 0.0 0.0 0.0 0.0 0.0 0.0 0.0 0.0 0.0 0.0 0.0 0.0 0.0 0.0 0.0 0.0 0.0 0.0 0.0 0.0 0.0 0.0 0.0 0.0 0.0 0.0 0.0 0.0 0.0 0.0 0.0 0.0 0.0 0.0 0.0 0.0
3.8 5.3 7.2 0.1 0.0 0.0 0.0 0.2 0.0 0.0 0.0 0.0 0.0 1.3 0.0 0.0 0.0 0.0 0.0 0.0 0.0 0.0 0.0 0.0 0.0 0.0 0.0 0.0 0.0 0.0 0.0 0.0 0.0 0.0 0.0 0.0 0.0 0.0 0.0 0.0 0.0 0.0 0.1 0.0
4.4 7.6 2.1 0.0 0.0 0.0 1.8 0.1 0.0 0.0 0.0 0.0 0.0 0.2 0.0 0.0 0.0 0.0 0.0 0.0 0.0 0.0 0.0 0.0 0.0 0.0 0.0 0.0 0.0 0.0 0.0 0.0 0.0 0.0 0.0 0.0 0.0 0.0 0.0 0.0 0.0 0.3 0.5 0.4
4.0 7.0 7.3 0.0 0.0 1.0 0.5 0.1 0.0 0.0 0.0 0.0 0.0 0.0 0.0 0.0 0.0 0.0 0.0 0.0 0.0 0.0 0.0 0.0 0.0 0.0 0.0 0.0 0.0 0.0 0.0 0.0 0.0 0.0 0.0 0.0 0.0 0.0 0.0 0.0 0.1 0.5 4.9 1.9
0.3 1.7 0.0 0.0 0.0 0.0 0.0 0.0 0.0 0.0 0.0 0.0 0.0 0.0 0.0 0.0 0.0 0.0 0.0 0.0 0.0 0.0 0.0 0.0 0.0 0.0 0.0 0.0 0.0 0.0 0.0 0.0 0.0 0.0 0.0 0.0 0.0 0.0 0.0 0.1 1.0 1.2 1.6 3.4
0.5 0.0 0.0 0.0 0.0 0.0 0.0 0.0 0.0 0.0 0.0 0.0 0.0 0.0 0.0 0.0 0.0 0.0 0.0 0.0 0.0 0.0 0.0 0.0 0.0 0.0 0.0 0.0 0.0 0.0 0.0 0.0 0.0 0.0 0.0 0.0 0.0 0.0 0.0 1.0 1.8 1.7 2.2 2.0
0.0 0.0 0.0 0.0 0.0 0.0 0.0 0.0 0.0 0.0 0.0 0.0 0.0 0.0 0.0 0.0 0.0 0.0 0.0 0.0 0.0 0.0 0.0 0.0 0.0 0.0 0.0 0.0 0.0 0.0 0.0 0.0 0.0 0.5 0.0 0.0 0.0 0.0 0.8 0.0 0.7 2.0 2.0 2.2
1.7 0.0 0.0 0.0 0.0 0.0 0.0 0.0 0.0 0.0 0.0 0.0 0.0 0.0 0.0 0.0 0.0 0.0 0.0 0.0 0.0 0.0 0.0 0.0 0.0 0.0 0.1 0.1 0.1 0.2 0.1 0.5 0.9 1.2 0.9 0.1 0.0 0.0 nan nan nan nan nan 9.4
0.0 0.0 0.0 0.0 0.0 0.0 0.0 0.0 0.0 0.0 0.0 0.0 0.0 0.0 0.0 0.0 0.0 nan 0.0 0.0 0.0 0.0 0.0 0.0 0.0 0.1 0.1 0.1 0.2 0.5 0.3 0.2 1.4 1.5 1.4 1.3 1.5 1.6 2.3 1.6 nan nan nan nan
0.0 0.0 0.0 0.0 0.0 0.0 0.0 0.0 0.0 0.0 0.0 0.0 0.0 0.0 0.0 0.0 0.0 0.0 0.0 0.0 0.0 0.0 0.0 0.1 0.1 0.2 0.1 0.1 0.1 0.5 0.3 0.3 1.6 1.4 1.5 1.9 2.9 3.0 3.1 4.4 7.4 6.0 nan nan
0.0 0.0 0.0 0.0 0.0 0.0 0.0 0.0 0.0 0.0 0.0 0.0 0.0 0.0 0.0 0.0 0.0 0.1 0.0 0.0 0.0 0.0 0.0 0.0 0.0 0.0 0.0 0.0 0.0 0.3 0.5 1.3 2.9 4.2 4.3 4.1 4.7 4.6 4.0 4.8 4.9 4.6 4.0 1.7
0.0 0.0 0.0 0.0 0.0 0.0 0.0 0.0 0.0 0.1 0.1 0.0 0.0 0.0 0.0 0.1 0.0 0.0 0.0 0.0 0.8 0.9 0.2 5.1 1.9 0.0 0.0 0.0 0.0 0.0 0.7 0.3 2.4 3.6 4.2 4.3 4.8 4.4 3.8 4.7 5.5 5.4 4.8 5.1
0.2 0.1 0.0 0.0 0.0 0.0 0.0 0.0 0.0 0.0 0.0 0.2 0.0 0.3 0.3 0.7 0.7 0.4 0.4 0.8 3.7 4.4 3.1 2.8 1.4 0.0 0.2 0.0 0.0 0.6 1.3 2.7 0.6 4.5 3.1 3.6 4.8 6.0 4.4 5.8 6.2 5.8 10.0 18.2
0.0 0.0 0.0 0.0 0.0 0.0 0.1 0.1 0.2 0.4 0.2 0.0 3.9 5.9 6.9 5.9 2.9 2.6 2.3 2.6 4.1 3.8 2.2 1.8 1.2 0.3 0.1 0.0 0.4 1.0 2.7 2.8 3.6 4.8 4.3 6.7 4.7 4.5 6.3 5.8 5.8 6.9 9.1 22.9
0.0 0.0 0.0 0.0 0.0 0.3 0.5 0.9 1.8 1.9 4.7 4.1 6.1 5.2 4.8 5.1 2.8 2.4 2.4 6.8 8.0 2.7 1.2 1.6 0.0 0.9 0.8 0.4 0.6 2.6 4.3 8.4 4.6 3.1 4.1 7.2 10.9 5.3 9.0 11.1 9.2 12.2 7.6 8.4
0.0 0.0 0.0 0.0 0.0 2.8 1.3 3.4 3.5 1.1 0.3 1.5 6.0 7.9 4.2 6.0 6.3 6.9 4.1 3.1 2.1 2.6 1.4 0.8 1.2 1.3 1.4 0.6 2.2 2.0 7.1 9.5 6.2 9.2 11.8 6.7 16.5 23.4 15.5 7.9 9.0 13.8 25.0 19.2
0.1 0.9 2.1 2.9 3.6 3.8 4.5 4.8 4.1 3.6 1.2 5.4 8.4 9.6 8.1 4.3 5.8 8.4 6.0 2.6 0.7 2.0 0.8 0.9 1.2 1.4 0.6 0.7 0.9 11.2 10.9 13.8 14.1 9.8 14.6 19.4 25.9 21.1 22.0 23.6 21.6 25.3 30.3 23.7
0.2 1.2 3.2 2.2 3.8 1.9 3.0 2.5 2.3 3.5 3.6 6.7 11.6 14.0 9.6 3.1 5.1 5.0 6.8 3.3 1.4 2.9 2.8 3.1 1.9 3.9 3.3 5.8 3.5 12.2 9.8 8.0 10.6 10.7 11.7 17.7 20.1 30.1 31.4 27.6 25.7 29.6 28.7 28.8
0.5 0.8 1.8 2.9 2.9 1.5 2.2 2.5 4.8 5.1 8.6 7.5 9.0 5.5 4.6 2.5 2.7 5.1 4.7 0.9 2.1 4.8 2.4 5.8 5.5 6.1 6.4 13.5 13.0 14.8 15.4 15.1 14.7 13.0 13.6 20.4 21.1 36.7 21.6 21.3 24.8 25.3 33.4 22.6
0.6 0.3 0.8 1.9 2.1 1.7 1.7 0.4 0.9 2.0 6.7 3.2 4.5 7.1 3.3 8.0 11.1 2.6 3.4 6.1 6.3 21.1 13.8 13.0 10.7 6.7 7.3 15.2 15.6 19.6 18.4 19.5 19.2 20.7 10.6 9.1 27.1 23.1 19.7 28.9 17.7 23.3 25.7 21.9
0.7 0.5 1.2 1.7 1.0 1.0 0.3 0.3 0.8 1.0 1.1 1.2 0.9 1.1 1.7 2.7 9.7 5.3 8.8 8.3 7.0 6.7 10.8 8.6 6.6 7.3 18.3 19.3 19.0 19.9 20.3 17.4 20.7 23.5 16.3 23.5 21.9 31.4 29.3 24.0 28.0 28.7 30.1 25.2
0.2 0.7 0.6 0.2 0.6 0.8 1.1 1.2 3.0 2.3 2.7 7.1 4.7 14.6 12.1 6.6 5.8 5.7 7.6 7.2 5.8 6.7 7.2 16.5 20.7 20.4 18.8 12.7 17.0 17.8 13.9 11.1 15.2 16.6 18.9 18.9 18.2 15.5 19.8 18.1 25.2 31.6 39.6 43.2
0.9 0.3 1.2 1.1 1.0 1.4 2.0 1.7 4.8 6.0 8.1 11.6 9.5 10.3 6.5 10.0 13.1 7.8 7.8 12.3 13.4 13.2 16.4 19.9 17.0 11.3 9.8 16.0 14.5 13.0 12.2 13.7 11.0 10.1 23.2 27.2 26.2 35.8 31.2 30.8 35.9 37.6 34.4 29.8

GFSNGP_prec_sndepth_015.txt.gz
Snowfall_Accumulation
0.0 0.0 0.0 0.0 0.0 0.0 0.0 0.0 0.4 0.0 0.0 0.0 0.0 0.0 0.0 0.0 0.0 0.0 0.0 0.0 0.0 0.0 0.0 0.0 0.0 0.0 0.0 0.0 0.0 0.0 0.0 0.0 0.0 0.0 0.0 0.0 0.0 0.0 0.0 0.0 0.0 0.0 0.0 0.0
0.1 0.0 0.0 0.0 0.0 0.0 0.0 0.0 0.0 0.0 0.0 0.0 0.0 0.0 0.0 0.0 0.0 0.0 0.0 0.0 0.0 0.0 0.0 0.0 0.0 0.0 0.0 0.0 0.0 0.0 0.0 0.0 0.0 0.0 0.0 0.0 0.0 0.0 0.0 0.0 0.0 0.0 0.0 0.0
0.1 0.0 0.1 1.5 0.0 0.0 0.0 0.0 0.0 0.2 0.0 0.0 0.0 0.0 0.0 0.0 0.0 0.0 0.0 0.0 0.0 0.0 0.0 0.0 0.0 0.0 0.0 0.0 0.0 0.0 0.0 0.0 0.0 0.0 0.0 0.0 0.0 0.0 0.0 0.0 0.0 0.0 0.0 0.0
2.3 1.1 4.0 0.0 0.0 0.0 0.0 0.0 0.0 0.0 0.0 0.0 0.0 0.0 0.0 0.0 0.0 0.0 0.0 0.0 0.0 0.0 0.0 0.0 0.0 0.0 0.0 0.0 0.0 0.0 0.0 0.0 0.0 0.0 0.0 0.0 0.0 0.0 0.0 0.0 0.0 0.0 0.0 0.0
5.4 1.0 0.0 0.0 0.0 0.0 0.0 0.0 0.0 0.0 0.0 0.0 0.0 0.0 0.0 0.0 0.0 0.0 0.0 0.0 0.0 0.0 0.0 0.0 0.0 0.0 0.0 0.0 0.0 0.0 0.0 0.0 0.0 0.0 0.0 0.0 0.0 0.0 0.0 0.0 0.0 0.0 0.0 0.0
1.9 1.9 4.0 0.0 0.0 0.0 0.0 0.1 0.0 0.0 0.0 0.0 0.0 0.7 0.0 0.0 0.0 0.0 0.0 0.0 0.0 0.0 0.0 0.0 0.0 0.0 0.0 0.0 0.0 0.0 0.0 0.0 0.0 0.0 0.0 0.0 0.0 0.0 0.0 0.0 0.0 0.0 0.0 0.0
2.3 3.9 1.1 0.0 0.0 0.0 1.0 0.1 0.0 0.0 0.0 0.0 0.0 0.1 0.0 0.0 0.0 0.0 0.0 0.0 0.0 0.0 0.0 0.0 0.0 0.0 0.0 0.0 0.0 0.0 0.0 0.0 0.0 0.0 0.0 0.0 0.0 0.0 0.0 0.0 0.0 0.1 0.1 0.1
2.2 3.6 4.1 0.0 0.0 0.3 0.3 0.0 0.0 0.0 0.0 0.0 0.0 0.0 0.0 0.0 0.0 0.0 0.0 0.0 0.0 0.0 0.0 0.0 0.0 0.0 0.0 0.0 0.0 0.0 0.0 0.0 0.0 0.0 0.0 0.0 0.0 0.0 0.0 0.0 0.0 0.1 1.9 0.7
0.1 0.9 0.0 0.0 0.0 0.0 0.0 0.0 0.0 0.0 0.0 0.0 0.0 0.0 0.0 0.0 0.0 0.0 0.0 0.0 0.0 0.0 0.0 0.0 0.0 0.0 0.0 0.0 0.0 0.0 0.0 0.0 0.0 0.0 0.0 0.0 0.0 0.0 0.0 0.0 0.5 0.3 0.9 1.8
0.2 0.0 0.0 0.0 0.0 0.0 0.0 0.0 0.0 0.0 0.0 0.0 0.0 0.0 0.0 0.0 0.0 0.0 0.0 0.0 0.0 0.0 0.0 0.0 0.0 0.0 0.0 0.0 0.0 0.0 0.0 0.0 0.0 0.0 0.0 0.0 0.0 0.0 0.0 0.6 1.0 0.9 1.3 1.1
0.0 0.0 0.0 0.0 0.0 0.0 0.0 0.0 0.0 0.0 0.0 0.0 0.0 0.0 0.0 0.0 0.0 0.0 0.0 0.0 0.0 0.0 0.0 0.0 0.0 0.0 0.0 0.0 0.0 0.0 0.0 0.0 0.0 0.3 0.0 0.0 0.0 0.0 0.5 0.0 0.4 1.2 1.1 1.2
0.9 0.0 0.0 0.0 0.0 0.0 0.0 0.0 0.0 0.0 0.0 0.0 0.0 0.0 0.0 0.0 0.0 0.0 0.0 0.0 0.0 0.0 0.0 0.0 0.0 0.0 0.0 0.0 0.0 0.1 0.0 0.3 0.5 0.7 0.6 0.0 0.0 0.0 nan nan nan nan nan 5.1
0.0 0.0 0.0 0.0 0.0 0.0 0.0 0.0 0.0 0.0 0.0 0.0 0.0 0.0 0.0 0.0 0.0 nan 0.0 0.0 0.0 0.0 0.0 0.0 0.0 0.0 0.0 0.0 0.1 0.2 0.1 0.1 0.8 0.8 0.9 0.9 1.1 1.1 1.6 1.0 nan nan nan nan
0.0 0.0 0.0 0.0 0.0 0.0 0.0 0.0 0.0 0.0 0.0 0.0 0.0 0.0 0.0 0.0 0.0 0.0 0.0 0.0 0.0 0.0 0.0 0.0 0.1 0.1 0.0 0.0 0.1 0.1 0.1 0.0 0.9 0.9 0.9 1.2 1.8 2.0 2.0 3.1 5.0 3.9 nan nan
0.0 0.0 0.0 0.0 0.0 0.0 0.0 0.0 0.0 0.0 0.0 0.0 0.0 0.0 0.0 0.0 0.0 0.0 0.0 0.0 0.0 0.0 0.0 0.0 0.0 0.0 0.0 0.0 0.0 0.1 0.3 0.8 1.5 2.5 2.7 2.6 3.0 2.7 2.4 3.1 3.3 3.0 2.6 1.2
0.0 0.0 0.0 0.0 0.0 0.0 0.0 0.0 0.0 0.1 0.0 0.0 0.0 0.0 0.0 0.0 0.0 0.0 0.0 0.0 0.5 0.5 0.1 3.6 0.8 0.0 0.0 0.0 0.0 0.0 0.4 0.1 1.3 2.3 2.7 2.8 3.1 2.8 2.4 3.0 3.6 3.5 3.1 3.1
0.1 0.1 0.0 0.0 0.0 0.0 0.0 0.0 0.0 0.0 0.0 0.1 0.0 0.1 0.1 0.2 0.3 0.1 0.1 0.3 2.1 2.6 1.6 1.2 0.5 0.0 0.1 0.0 0.0 0.3 0.7 1.6 0.0 2.6 2.0 2.3 3.0 3.8 2.7 3.6 3.8 3.5 6.0 10.9
0.0 0.0 0.0 0.0 0.0 0.0 0.0 0.1 0.1 0.1 0.1 0.0 2.4 4.0 4.9 4.3 1.4 1.2 1.0 1.2 2.6 2.5 0.9 0.6 0.4 0.1 0.0 0.0 0.1 0.5 1.6 1.7 2.3 3.0 2.6 4.2 2.9 2.8 3.9 3.6 3.6 4.3 5.4 16.1
0.0 0.0 0.0 0.0 0.0 0.1 0.1 0.2 0.7 1.1 3.1 2.6 4.3 3.3 3.1 3.5 1.4 1.0 1.1 5.3 6.3 1.3 0.3 0.4 0.0 0.3 0.2 0.1 0.3 1.4 2.6 5.6 2.9 2.0 2.5 5.8 7.2 3.6 6.1 7.3 5.8 7.8 4.6 5.1
0.0 0.0 0.0 0.0 0.0 1.5 0.4 2.0 1.9 0.5 0.1 0.7 4.5 5.7 2.4 4.1 4.5 5.3 2.5 1.6 0.7 1.4 0.3 0.2 0.3 0.3 0.3 0.2 1.6 1.2 4.0 5.7 3.6 5.7 7.6 4.2 11.2 16.4 10.6 6.9 6.0 9.2 17.4 13.0
0.1 0.3 1.0 1.8 2.3 2.5 3.3 3.4 2.8 2.2 0.5 4.2 6.6 7.6 6.8 3.1 4.3 6.9 3.7 1.5 0.2 0.6 0.2 0.1 0.5 0.9 0.4 0.5 0.6 7.1 6.6 9.4 9.9 6.4 10.1 13.7 18.7 14.2 15.1 16.7 15.4 18.4 21.8 16.9
0.1 0.4 1.9 1.2 2.5 0.9 1.9 1.4 1.1 2.5 2.5 5.4 9.9 12.2 8.7 2.1 3.8 3.5 5.3 1.9 0.9 2.0 1.8 2.0 1.3 3.1 2.6 4.9 2.4 9.3 7.4 6.0 7.4 7.0 7.8 12.5 14.3 22.0 23.2 19.7 18.5 21.4 20.9 21.3
0.2 0.2 0.7 2.0 1.9 0.7 1.1 1.6 3.9 4.0 8.1 6.7 8.0 4.5 3.5 1.9 2.1 4.2 3.9 0.3 1.5 3.9 1.7 4.1 4.6 5.3 5.6 10.7 10.4 11.8 11.9 11.7 11.4 9.9 10.6 17.2 17.2 29.0 16.4 15.6 18.2 18.8 25.5 17.1
0.2 0.1 0.4 1.2 1.2 0.9 0.9 0.2 0.4 1.0 6.4 2.2 3.6 6.7 2.1 6.2 8.8 1.7 2.3 5.6 5.7 17.9 10.8 10.4 9.0 6.1 6.6 12.6 13.3 16.5 15.4 16.8 17.7 20.4 10.2 9.1 26.7 22.7 19.1 27.4 16.9 19.3 21.5 18.2
0.4 0.3 0.7 1.0 0.5 0.7 0.1 0.1 0.4 0.5 0.6 0.6 0.4 0.5 0.8 1.7 8.2 3.8 7.1 6.8 6.5 5.5 9.0 7.9 6.4 7.2 17.6 19.0 19.0 20.2 20.0 17.4 20.9 23.5 16.3 23.3 21.6 30.9 28.8 23.5 27.4 28.1 29.4 24.4
0.1 0.5 0.4 0.1 0.4 0.6 0.8 0.9 2.4 1.6 2.1 6.1 3.7 13.1 10.1 5.2 4.6 4.8 6.7 6.8 5.1 6.3 6.7 16.7 20.9 20.6 19.4 13.4 17.6 18.4 14.4 11.5 15.4 16.7 18.9 18.7 18.0 15.4 19.5 17.9 24.7 30.9 38.6 42.0
0.7 0.2 0.9 0.8 0.8 1.1 1.6 1.3 4.1 5.7 7.8 11.2 9.3 9.6 5.9 9.8 13.0 7.7 7.8 12.1 13.1 13.1 16.5 20.2 17.3 11.6 10.5 16.8 15.1 13.4 12.5 13.9 11.0 10.1 23.0 26.8 25.7 34.9 30.5 30.1 35.1 36.7 33.6 29.2

GFSNGP_prec_sndepth_018.txt.gz
Snowfall_Accumulation
0.0 0.0 0.0 0.0 0.0 0.0 0.0 0.0 0.3 0.0 0.0 0.0 0.0 0.0 0.0 0.0 0.0 0.0 0.0 0.0 0.0 0.0 0.0 0.0 0.0 0.0 0.0 0.0 0.0 0.0 0.0 0.0 0.0 0.0 0.0 0.0 0.0 0.0 0.0 0.0 0.0 0.0 0.0 0.0
0.0 0.0 0.0 0.0 0.0 0.0 0.0 0.0 0.0 0.0 0.0 0.0 0.0 0.0 0.0 0.0 0.0 0.0 0.0 0.0 0.0 0.0 0.0 0.0 0.0 0.0 0.0 0.0 0.0 0.0 0.0 0.0 0.0 0.0 0.0 0.0 0.0 0.0 0.0 0.0 0.0 0.0 0.0 0.0
0.1 0.0 0.0 1.0 0.0 0.0 0.0 0.0 0.0 0.2 0.0 0.0 0.0 0.0 0.0 0.0 0.0 0.0 0.0 0.0 0.0 0.0 0.0 0.0 0.0 0.0 0.0 0.0 0.0 0.0 0.0 0.0 0.0 0.0 0.0 0.0 0.0 0.0 0.0 0.0 0.0 0.0 0.0 0.0
1.7 0.9 3.0 0.0 0.0 0.0 0.0 0.0 0.0 0.0 0.0 0.0 0.0 0.0 0.0 0.0 0.0 0.0 0.0 0.0 0.0 0.0 0.0 0.0 0.0 0.0 0.0 0.0 0.0 0.0 0.0 0.0 0.0 0.0 0.0 0.0 0.0 0.0 0.0 0.0 0.0 0.0 0.0 0.0
4.2 0.8 0.0 0.0 0.0 0.0 0.0 0.0 0.0 0.0 0.0 0.0 0.0 0.0 0.0 0.0 0.0 0.0 0.0 0.0 0.0 0.0 0.0 0.0 0.0 0.0 0.0 0.0 0.0 0.0 0.0 0.0 0.0 0.0 0.0 0.0 0.0 0.0 0.0 0.0 0.0 0.0 0.0 0.0
1.4 1.2 3.1 0.0 0.0 0.0 0.0 0.1 0.0 0.0 0.0 0.0 0.0 0.6 0.0 0.0 0.0 0.0 0.0 0.0 0.0 0.0 0.0 0.0 0.0 0.0 0.0 0.0 0.0 0.0 0.0 0.0 0.0 0.0 0.0 0.0 0.0 0.0 0.0 0.0 0.0 0.0 0.0 0.0
1.7 2.9 0.9 0.0 0.0 0.0 0.7 0.1 0.0 0.0 0.0 0.0 0.0 0.0 0.0 0.0 0.0 0.0 0.0 0.0 0.0 0.0 0.0 0.0 0.0 0.0 0.0 0.0 0.0 0.0 0.0 0.0 0.0 0.0 0.0 0.0 0.0 0.0 0.0 0.0 0.0 0.1 0.1 0.1
1.6 2.7 3.1 0.0 0.0 0.2 0.2 0.0 0.0 0.0 0.0 0.0 0.0 0.0 0.0 0.0 0.0 0.0 0.0 0.0 0.0 0.0 0.0 0.0 0.0 0.0 0.0 0.0 0.0 0.0 0.0 0.0 0.0 0.0 0.0 0.0 0.0 0.0 0.0 0.0 0.0 0.1 1.5 0.6
0.1 0.7 0.0 0.0 0.0 0.0 0.0 0.0 0.0 0.0 0.0 0.0 0.0 0.0 0.0 0.0 0.0 0.0 0.0 0.0 0.0 0.0 0.0 0.0 0.0 0.0 0.0 0.0 0.0 0.0 0.0 0.0 0.0 0.0 0.0 0.0 0.0 0.0 0.0 0.0 0.5 0.2 0.8 1.6
0.1 0.0 0.0 0.0 0.0 0.0 0.0 0.0 0.0 0.0 0.0 0.0 0.0 0.0 0.0 0.0 0.0 0.0 0.0 0.0 0.0 0.0 0.0 0.0 0.0 0.0 0.0 0.0 0.0 0.0 0.0 0.0 0.0 0.0 0.0 0.0 0.0 0.0 0.0 0.5 0.9 0.8 1.1 1.0
0.0 0.0 0.0 0.0 0.0 0.0 0.0 0.0 0.0 0.0 0.0 0.0 0.0 0.0 0.0 0.0 0.0 0.0 0.0 0.0 0.0 0.0 0.0 0.0 0.0 0.0 0.0 0.0 0.0 0.0 0.0 0.0 0.0 0.2 0.0 0.0 0.0 0.0 0.5 0.0 0.4 1.0 1.0 1.0
0.7 0.0 0.0 0.0 0.0 0.0 0.0 0.0 0.0 0.0 0.0 0.0 0.0 0.0 0.0 0.0 0.0 0.0 0.0 0.0 0.0 0.0 0.0 0.0 0.0 0.0 0.0 0.0 0.0 0.0 0.0 0.3 0.5 0.7 0.5 0.0 0.0 0.0 nan nan nan nan nan 4.4
0.0 0.0 0.0 0.0 0.0 0.0 0.0 0.0 0.0 0.0 0.0 0.0 0.0 0.0 0.0 0.0 0.0 nan 0.0 0.0 0.0 0.0 0.0 0.0 0.0 0.0 0.0 0.0 0.1 0.1 0.1 0.1 0.7 0.7 0.7 0.7 0.9 1.0 1.3 0.9 nan nan nan nan
0.0 0.0 0.0 0.0 0.0 0.0 0.0 0.0 0.0 0.0 0.0 0.0 0.0 0.0 0.0 0.0 0.0 0.0 0.0 0.0 0.0 0.0 0.0 0.0 0.0 0.0 0.0 0.0 0.0 0.1 0.1 0.0 0.8 0.7 0.8 1.0 1.6 1.7 1.7 2.7 4.4 3.4 nan nan
0.0 0.0 0.0 0.0 0.0 0.0 0.0 0.0 0.0 0.0 0.0 0.0 0.0 0.0 0.0 0.0 0.0 0.0 0.0 0.0 0.0 0.0 0.0 0.0 0.0 0.0 0.0 0.0 0.0 0.1 0.2 0.6 1.2 2.1 2.3 2.2 2.6 2.3 2.1 2.7 2.9 2.6 2.2 1.1
0.0 0.0 0.0 0.0 0.0 0.0 0.0 0.0 0.0 0.0 0.0 0.0 0.0 0.0 0.0 0.0 0.0 0.0 0.0 0.0 0.4 0.4 0.0 3.4 0.6 0.0 0.0 0.0 0.0 0.0 0.3 0.0 1.0 1.8 2.3 2.4 2.6 2.4 2.1 2.6 3.2 3.1 2.7 2.7
0.0 0.0 0.0 0.0 0.0 0.0 0.0 0.0 0.0 0.0 0.0 0.0 0.0 0.1 0.1 0.2 0.2 0.1 0.1 0.2 1.7 2.1 1.1 0.9 0.3 0.0 0.1 0.0 0.0 0.3 0.6 1.3 0.0 2.3 1.7 1.9 2.6 3.2 2.4 3.1 3.4 3.1 5.2 9.3
0.0 0.0 0.0 0.0 0.0 0.0 0.0 0.0 0.0 0.1 0.1 0.0 2.0 3.5 4.4 3.9 1.1 0.9 0.7 0.9 2.1 2.0 0.6 0.4 0.2 0.1 0.0 0.0 0.1 0.4 1.2 1.4 1.9 2.6 2.2 3.6 2.5 2.3 3.3 3.2 3.2 3.8 4.7 14.5
0.0 0.0 0.0 0.0 0.0 0.1 0.1 0.2 0.5 0.8 2.6 2.2 3.8 3.0 2.7 3.2 1.2 0.8 0.9 4.8 5.5 0.9 0.2 0.3 0.0 0.2 0.1 0.1 0.2 1.2 2.1 4.8 2.5 1.7 2.1 5.4 6.1 3.0 5.2 6.5 5.1 6.8 4.1 4.5
0.0 0.0 0.0 0.0 0.0 1.1 0.3 1.6 1.5 0.4 0.1 0.6 4.1 5.2 2.2 3.8 4.2 5.0 2.3 1.4 0.5 1.3 0.2 0.2 0.2 0.2 0.2 0.2 1.5 1.0 3.5 5.0 3.1 4.8 6.5 3.5 9.7 14.4 9.4 6.7 5.4 8.3 15.5 11.5
0.0 0.2 0.7 1.4 2.0 2.1 2.8 2.9 2.4 2.0 0.3 3.9 6.3 7.3 6.6 2.8 4.1 6.6 3.4 1.3 0.1 0.5 0.2 0.1 0.4 0.8 0.4 0.4 0.5 6.4 6.0 8.9 9.4 6.1 9.5 12.8 17.3 12.8 13.9 15.3 14.0 17.3 20.1 15.4
0.1 0.3 1.5 0.9 2.1 0.7 1.6 1.1 0.9 2.3 2.3 5.3 9.8 12.2 8.7 1.8 3.5 3.1 5.1 1.7 0.8 1.9 1.7 1.8 1.2 3.0 2.5 4.8 2.1 8.6 6.9 5.6 6.9 6.7 7.4 11.7 13.5 21.0 21.9 18.8 18.0 20.5 19.9 20.1
0.1 0.2 0.5 1.7 1.6 0.5 0.8 1.4 3.7 3.8 8.1 6.7 8.0 4.4 3.2 1.7 1.8 3.8 3.7 0.2 1.3 3.8 1.6 3.9 4.6 5.3 5.6 10.3 9.9 11.2 11.7 11.4 11.4 10.8 11.5 17.7 17.6 29.1 16.4 15.6 18.1 18.8 25.3 17.1
0.1 0.1 0.3 0.9 0.9 0.6 0.6 0.1 0.2 0.7 6.4 2.0 3.5 6.7 1.9 5.9 8.5 1.5 2.0 5.6 5.7 17.8 10.7 10.4 9.0 6.1 6.6 12.6 13.3 16.5 15.5 16.9 17.8 20.7 10.5 9.2 26.9 22.8 19.1 27.3 16.9 19.2 21.4 18.2
0.3 0.2 0.5 0.7 0.3 0.6 0.1 0.1 0.3 0.3 0.4 0.5 0.3 0.4 0.7 1.5 8.0 3.7 7.0 6.7 6.5 5.5 8.9 7.9 6.4 7.2 17.5 19.0 19.0 20.1 20.0 17.5 20.9 23.6 16.5 23.6 21.8 30.9 28.8 23.5 27.3 27.9 29.2 24.3
0.1 0.5 0.4 0.1 0.4 0.5 0.7 0.8 2.2 1.4 1.9 5.8 3.5 12.9 9.7 5.1 4.5 4.7 6.6 6.8 5.1 6.3 6.7 16.7 20.9 20.6 19.4 13.4 17.6 18.4 14.4 11.6 15.5 16.8 19.0 18.9 18.1 15.5 19.5 17.8 24.6 30.6 38.2 41.6
0.6 0.2 0.8 0.7 0.7 1.0 1.4 1.2 3.9 5.5 7.7 11.1 9.1 9.5 5.7 9.7 12.9 7.7 7.8 12.1 13.1 13.1 16.5 20.1 17.3 11.6 10.6 16.8 15.1 13.4 12.5 13.9 11.1 10.2 23.0 26.7 25.7 34.7 30.3 30.0 34.8 36.4 33.4 29.0

GFSNGP_prec_sndepth_021.txt.gz
Snowfall_Accumulation
0.0 0.0 0.0 0.0 0.0 0.0 0.0 0.0 0.3 0.0 0.0 0.0 0.0 0.0 0.0 0.0 0.0 0.0 0.0 0.0 0.0 0.0 0.0 0.0 0.0 0.0 0.0 0.0 0.0 0.0 0.0 0.0 0.0 0.0 0.0 0.0 0.0 0.0 0.0 0.0 0.0 0.0 0.0 0.0
0.0 0.0 0.0 0.0 0.0 0.0 0.0 0.0 0.0 0.0 0.0 0.0 0.0 0.0 0.0 0.0 0.0 0.0 0.0 0.0 0.0 0.0 0.0 0.0 0.0 0.0 0.0 0.0 0.0 0.0 0.0 0.0 0.0 0.0 0.0 0.0 0.0 0.0 0.0 0.0 0.0 0.0 0.0 0.0
0.1 0.0 0.0 1.0 0.0 0.0 0.0 0.0 0.0 0.2 0.0 0.0 0.0 0.0 0.0 0.0 0.0 0.0 0.0 0.0 0.0 0.0 0.0 0.0 0.0 0.0 0.0 0.0 0.0 0.0 0.0 0.0 0.0 0.0 0.0 0.0 0.0 0.0 0.0 0.0 0.0 0.0 0.0 0.0
1.7 0.9 3.0 0.0 0.0 0.0 0.0 0.0 0.0 0.0 0.0 0.0 0.0 0.0 0.0 0.0 0.0 0.0 0.0 0.0 0.0 0.0 0.0 0.0 0.0 0.0 0.0 0.0 0.0 0.0 0.0 0.0 0.0 0.0 0.0 0.0 0.0 0.0 0.0 0.0 0.0 0.0 0.0 0.0
4.1 0.8 0.0 0.0 0.0 0.0 0.0 0.0 0.0 0.0 0.0 0.0 0.0 0.0 0.0 0.0 0.0 0.0 0.0 0.0 0.0 0.0 0.0 0.0 0.0 0.0 0.0 0.0 0.0 0.0 0.0 0.0 0.0 0.0 0.0 0.0 0.0 0.0 0.0 0.0 0.0 0.0 0.0 0.0
1.4 1.1 3.1 0.0 0.0 0.0 0.0 0.1 0.0 0.0 0.0 0.0 0.0 0.5 0.0 0.0 0.0 0.0 0.0 0.0 0.0 0.0 0.0 0.0 0.0 0.0 0.0 0.0 0.0 0.0 0.0 0.0 0.0 0.0 0.0 0.0 0.0 0.0 0.0 0.0 0.0 0.0 0.0 0.0
1.7 2.8 0.8 0.0 0.0 0.0 0.7 0.1 0.0 0.0 0.0 0.0 0.0 0.0 0.0 0.0 0.0 0.0 0.0 0.0 0.0 0.0 0.0 0.0 0.0 0.0 0.0 0.0 0.0 0.0 0.0 0.0 0.0 0.0 0.0 0.0 0.0 0.0 0.0 0.0 0.0 0.1 0.1 0.0
1.6 2.6 3.1 0.0 0.0 0.2 0.2 0.0 0.0 0.0 0.0 0.0 0.0 0.0 0.0 0.0 0.0 0.0 0.0 0.0 0.0 0.0 0.0 0.0 0.0 0.0 0.0 0.0 0.0 0.0 0.0 0.0 0.0 0.0 0.0 0.0 0.0 0.0 0.0 0.0 0.0 0.1 1.5 0.6
0.1 0.7 0.0 0.0 0.0 0.0 0.0 0.0 0.0 0.0 0.0 0.0 0.0 0.0 0.0 0.0 0.0 0.0 0.0 0.0 0.0 0.0 0.0 0.0 0.0 0.0 0.0 0.0 0.0 0.0 0.0 0.0 0.0 0.0 0.0 0.0 0.0 0.0 0.0 0.0 0.5 0.2 0.8 1.6
0.1 0.0 0.0 0.0 0.0 0.0 0.0 0.0 0.0 0.0 0.0 0.0 0.0 0.0 0.0 0.0 0.0 0.0 0.0 0.0 0.0 0.0 0.0 0.0 0.0 0.0 0.0 0.0 0.0 0.0 0.0 0.0 0.0 0.0 0.0 0.0 0.0 0.0 0.0 0.5 0.9 0.8 1.1 1.0
0.0 0.0 0.0 0.0 0.0 0.0 0.0 0.0 0.0 0.0 0.0 0.0 0.0 0.0 0.0 0.0 0.0 0.0 0.0 0.0 0.0 0.0 0.0 0.0 0.0 0.0 0.0 0.0 0.0 0.0 0.0 0.0 0.0 0.2 0.0 0.0 0.0 0.0 0.5 0.0 0.4 1.0 1.0 1.0
0.6 0.0 0.0 0.0 0.0 0.0 0.0 0.0 0.0 0.0 0.0 0.0 0.0 0.0 0.0 0.0 0.0 0.0 0.0 0.0 0.0 0.0 0.0 0.0 0.0 0.0 0.0 0.0 0.0 0.0 0.0 0.3 0.5 0.7 0.5 0.0 0.0 0.0 nan nan nan nan nan 4.4
0.0 0.0 0.0 0.0 0.0 0.0 0.0 0.0 0.0 0.0 0.0 0.0 0.0 0.0 0.0 0.0 0.0 nan 0.0 0.0 0.0 0.0 0.0 0.0 0.0 0.0 0.0 0.0 0.1 0.1 0.1 0.1 0.7 0.7 0.7 0.7 0.9 1.0 1.3 0.9 nan nan nan nan
0.0 0.0 0.0 0.0 0.0 0.0 0.0 0.0 0.0 0.0 0.0 0.0 0.0 0.0 0.0 0.0 0.0 0.0 0.0 0.0 0.0 0.0 0.0 0.0 0.0 0.0 0.0 0.0 0.0 0.1 0.1 0.0 0.8 0.7 0.8 1.0 1.6 1.7 1.7 2.6 4.4 3.4 nan nan
0.0 0.0 0.0 0.0 0.0 0.0 0.0 0.0 0.0 0.0 0.0 0.0 0.0 0.0 0.0 0.0 0.0 0.0 0.0 0.0 0.0 0.0 0.0 0.0 0.0 0.0 0.0 0.0 0.0 0.1 0.2 0.6 1.2 2.1 2.3 2.2 2.4 2.2 1.9 2.7 2.9 2.6 2.2 1.1
0.0 0.0 0.0 0.0 0.0 0.0 0.0 0.0 0.0 0.0 0.0 0.0 0.0 0.0 0.0 0.0 0.0 0.0 0.0 0.0 0.4 0.4 0.0 3.5 0.6 0.0 0.0 0.0 0.0 0.0 0.3 0.0 1.0 1.8 2.2 2.2 2.4 2.4 2.1 2.6 3.2 3.1 2.7 2.7
0.0 0.0 0.0 0.0 0.0 0.0 0.0 0.0 0.0 0.0 0.0 0.0 0.0 0.1 0.1 0.2 0.2 0.1 0.1 0.2 1.7 2.1 1.1 0.9 0.3 0.0 0.1 0.0 0.0 0.3 0.6 1.2 0.0 2.2 1.6 1.8 2.6 3.3 2.4 3.4 3.6 3.1 5.2 9.3
0.0 0.0 0.0 0.0 0.0 0.0 0.0 0.0 0.0 0.1 0.1 0.0 2.0 3.5 4.4 3.9 1.1 0.9 0.7 0.9 2.1 2.0 0.6 0.3 0.2 0.1 0.0 0.0 0.1 0.4 1.2 1.4 1.8 2.5 2.1 3.4 2.3 2.2 3.3 3.2 3.3 3.8 4.7 14.5
0.0 0.0 0.0 0.0 0.0 0.1 0.1 0.2 0.4 0.8 2.6 2.2 3.8 3.0 2.7 3.2 1.2 0.8 0.9 4.8 5.5 0.9 0.2 0.3 0.0 0.2 0.1 0.1 0.2 1.2 2.1 4.7 2.4 1.6 2.0 5.4 5.8 2.9 5.2 6.5 5.4 7.3 4.1 4.6
0.0 0.0 0.0 0.0 0.0 1.1 0.3 1.6 1.5 0.4 0.1 0.6 4.1 5.2 2.2 3.8 4.2 5.0 2.3 1.4 0.5 1.3 0.2 0.2 0.2 0.2 0.2 0.2 1.5 1.0 3.5 5.0 3.2 4.9 6.5 3.6 9.6 14.7 10.1 7.5 6.9 8.7 15.5 11.5
0.0 0.2 0.7 1.4 2.0 2.1 2.8 2.9 2.3 2.0 0.3 3.9 6.3 7.4 6.6 2.8 4.1 6.6 3.4 1.3 0.1 0.5 0.2 0.1 0.4 0.8 0.4 0.4 0.6 6.5 6.0 9.1 9.4 6.3 9.7 12.9 17.5 13.6 14.6 15.9 14.4 17.4 20.1 15.6
0.1 0.3 1.5 0.9 2.1 0.7 1.6 1.1 0.9 2.3 2.3 5.3 9.8 12.2 8.7 1.8 3.5 3.1 5.1 1.7 0.8 1.9 1.6 1.8 1.2 3.0 2.5 4.8 2.1 8.6 6.9 5.7 7.0 6.7 7.6 11.9 13.9 21.8 22.5 19.3 18.6 21.0 20.2 20.1
0.1 0.2 0.5 1.7 1.6 0.5 0.8 1.4 3.7 3.9 8.1 6.7 8.0 4.4 3.2 1.7 1.8 3.8 3.7 0.2 1.3 3.8 1.5 3.9 4.6 5.3 5.6 10.3 9.9 11.3 11.7 11.6 11.4 10.9 11.6 17.9 17.9 29.4 16.7 15.9 18.3 18.9 25.3 17.1
0.1 0.1 0.3 0.9 1.0 0.6 0.6 0.1 0.2 0.7 6.4 2.0 3.5 6.7 1.9 5.9 8.5 1.5 2.0 5.6 5.7 17.8 10.7 10.4 9.0 6.1 6.6 12.6 13.3 16.5 15.5 17.0 17.8 20.6 10.5 9.2 26.9 22.9 19.3 27.4 17.1 19.4 21.5 18.2
0.3 0.2 0.5 0.7 0.3 0.6 0.1 0.1 0.3 0.3 0.4 0.5 0.3 0.3 0.7 1.5 8.0 3.7 7.0 6.7 6.5 5.5 8.9 7.9 6.4 7.2 17.5 18.9 19.0 20.1 20.0 17.6 20.8 23.5 16.5 23.6 21.8 31.0 28.9 23.6 27.4 28.0 29.1 24.2
0.1 0.5 0.4 0.1 0.4 0.5 0.7 0.8 2.2 1.4 1.8 5.8 3.5 12.9 9.7 5.1 4.5 4.7 6.6 6.8 5.1 6.3 6.7 16.7 20.9 20.6 19.4 13.4 17.6 18.4 14.4 11.6 15.4 16.8 19.0 18.9 18.1 15.6 19.5 17.8 24.5 30.5 38.0 41.3
0.7 0.2 0.8 0.6 0.7 0.9 1.4 1.2 3.9 5.5 7.7 11.1 9.1 9.5 5.8 9.7 12.9 7.7 7.8 12.1 13.1 13.1 16.5 20.1 17.3 11.6 10.6 16.8 15.1 13.4 12.5 13.9 11.1 10.3 22.9 26.6 25.6 34.5 30.2 29.8 34.7 36.3 33.2 28.9

GFSNGP_prec_sndepth_024.txt.gz
Snowfall_Accumulation
0.0 0.0 0.0 0.0 0.0 0.0 0.0 0.0 0.3 0.0 0.0 0.0 0.0 0.0 0.0 0.0 0.0 0.0 0.0 0.0 0.0 0.0 0.0 0.0 0.0 0.0 0.0 0.0 0.0 0.0 0.0 0.0 0.0 0.0 0.0 0.0 0.0 0.0 0.0 0.0 0.0 0.0 0.0 0.0
0.0 0.0 0.0 0.0 0.0 0.0 0.0 0.0 0.0 0.0 0.0 0.0 0.0 0.0 0.0 0.0 0.0 0.0 0.0 0.0 0.0 0.0 0.0 0.0 0.0 0.0 0.0 0.0 0.0 0.0 0.0 0.0 0.0 0.0 0.0 0.0 0.0 0.0 0.0 0.0 0.0 0.0 0.0 0.0
0.1 0.0 0.0 1.0 0.0 0.0 0.0 0.0 0.0 0.2 0.0 0.0 0.0 0.0 0.0 0.0 0.0 0.0 0.0 0.0 0.0 0.0 0.0 0.0 0.0 0.0 0.0 0.0 0.0 0.0 0.0 0.0 0.0 0.0 0.0 0.0 0.0 0.0 0.0 0.0 0.0 0.0 0.0 0.0
1.7 0.9 3.0 0.0 0.0 0.0 0.0 0.0 0.0 0.0 0.0 0.0 0.0 0.0 0.0 0.0 0.0 0.0 0.0 0.0 0.0 0.0 0.0 0.0 0.0 0.0 0.0 0.0 0.0 0.0 0.0 0.0 0.0 0.0 0.0 0.0 0.0 0.0 0.0 0.0 0.0 0.0 0.0 0.0
4.1 0.8 0.0 0.0 0.0 0.0 0.0 0.0 0.0 0.0 0.0 0.0 0.0 0.0 0.0 0.0 0.0 0.0 0.0 0.0 0.0 0.0 0.0 0.0 0.0 0.0 0.0 0.0 0.0 0.0 0.0 0.0 0.0 0.0 0.0 0.0 0.0 0.0 0.0 0.0 0.0 0.0 0.0 0.0
1.4 1.1 3.1 0.0 0.0 0.0 0.0 0.1 0.0 0.0 0.0 0.0 0.0 0.5 0.0 0.0 0.0 0.0 0.0 0.0 0.0 0.0 0.0 0.0 0.0 0.0 0.0 0.0 0.0 0.0 0.0 0.0 0.0 0.0 0.0 0.0 0.0 0.0 0.0 0.0 0.0 0.0 0.0 0.0
1.7 2.8 0.8 0.0 0.0 0.0 0.7 0.1 0.0 0.0 0.0 0.0 0.0 0.0 0.0 0.0 0.0 0.0 0.0 0.0 0.0 0.0 0.0 0.0 0.0 0.0 0.0 0.0 0.0 0.0 0.0 0.0 0.0 0.0 0.0 0.0 0.0 0.0 0.0 0.0 0.0 0.1 0.1 0.0
1.5 2.6 3.1 0.0 0.0 0.2 0.2 0.0 0.0 0.0 0.0 0.0 0.0 0.0 0.0 0.0 0.0 0.0 0.0 0.0 0.0 0.0 0.0 0.0 0.0 0.0 0.0 0.0 0.0 0.0 0.0 0.0 0.0 0.0 0.0 0.0 0.0 0.0 0.0 0.0 0.0 0.1 1.5 0.6
0.1 0.7 0.0 0.0 0.0 0.0 0.0 0.0 0.0 0.0 0.0 0.0 0.0 0.0 0.0 0.0 0.0 0.0 0.0 0.0 0.0 0.0 0.0 0.0 0.0 0.0 0.0 0.0 0.0 0.0 0.0 0.0 0.0 0.0 0.0 0.0 0.0 0.0 0.0 0.0 0.5 0.2 0.8 1.6
0.1 0.0 0.0 0.0 0.0 0.0 0.0 0.0 0.0 0.0 0.0 0.0 0.0 0.0 0.0 0.0 0.0 0.0 0.0 0.0 0.0 0.0 0.0 0.0 0.0 0.0 0.0 0.0 0.0 0.0 0.0 0.0 0.0 0.0 0.0 0.0 0.0 0.0 0.0 0.5 0.9 0.8 1.1 1.0
0.0 0.0 0.0 0.0 0.0 0.0 0.0 0.0 0.0 0.0 0.0 0.0 0.0 0.0 0.0 0.0 0.0 0.0 0.0 0.0 0.0 0.0 0.0 0.0 0.0 0.0 0.0 0.0 0.0 0.0 0.0 0.0 0.0 0.2 0.0 0.0 0.0 0.0 0.5 0.0 0.4 1.0 1.0 1.0
0.6 0.0 0.0 0.0 0.0 0.0 0.0 0.0 0.0 0.0 0.0 0.0 0.0 0.0 0.0 0.0 0.0 0.0 0.0 0.0 0.0 0.0 0.0 0.0 0.0 0.0 0.0 0.0 0.0 0.0 0.0 0.3 0.5 0.7 0.5 0.0 0.0 0.0 nan nan nan nan nan 4.3
0.0 0.0 0.0 0.0 0.0 0.0 0.0 0.0 0.0 0.0 0.0 0.0 0.0 0.0 0.0 0.0 0.0 nan 0.0 0.0 0.0 0.0 0.0 0.0 0.0 0.0 0.0 0.0 0.1 0.1 0.1 0.1 0.7 0.7 0.7 0.8 0.9 1.0 1.3 0.9 nan nan nan nan
0.0 0.0 0.0 0.0 0.0 0.0 0.0 0.0 0.0 0.0 0.0 0.0 0.0 0.0 0.0 0.0 0.0 0.0 0.0 0.0 0.0 0.0 0.0 0.0 0.0 0.0 0.0 0.0 0.0 0.1 0.1 0.0 0.8 0.7 0.8 1.0 1.6 1.7 1.6 2.5 4.3 3.3 nan nan
0.0 0.0 0.0 0.0 0.0 0.0 0.0 0.0 0.0 0.0 0.0 0.0 0.0 0.0 0.0 0.0 0.0 0.0 0.0 0.0 0.0 0.0 0.0 0.0 0.0 0.0 0.0 0.0 0.0 0.1 0.2 0.6 1.2 2.1 2.3 2.2 2.4 2.2 1.9 2.7 3.0 2.7 2.3 1.1
0.0 0.0 0.0 0.0 0.0 0.0 0.0 0.0 0.0 0.0 0.0 0.0 0.0 0.0 0.0 0.0 0.0 0.0 0.0 0.0 0.4 0.4 0.0 3.5 0.6 0.0 0.0 0.0 0.0 0.0 0.3 0.0 1.0 1.8 2.1 2.1 2.3 2.3 2.0 2.6 3.4 3.3 2.8 2.7
0.0 0.0 0.0 0.0 0.0 0.0 0.0 0.0 0.0 0.0 0.0 0.0 0.0 0.1 0.1 0.2 0.2 0.1 0.1 0.2 1.7 2.1 1.1 0.8 0.3 0.0 0.1 0.0 0.0 0.3 0.6 1.2 0.0 2.2 1.6 1.8 2.5 3.2 2.4 3.4 3.6 3.2 5.2 9.1
0.0 0.0 0.0 0.0 0.0 0.0 0.0 0.0 0.0 0.1 0.1 0.0 2.0 3.5 4.4 3.9 1.1 0.9 0.7 0.9 2.1 2.0 0.6 0.3 0.2 0.1 0.0 0.0 0.1 0.4 1.2 1.4 1.8 2.5 2.1 3.4 2.3 2.3 3.3 3.3 3.4 4.0 4.9 14.2
0.0 0.0 0.0 0.0 0.0 0.0 0.1 0.2 0.4 0.8 2.6 2.2 3.8 3.0 2.7 3.2 1.2 0.8 0.9 4.8 5.6 0.9 0.2 0.2 0.0 0.2 0.1 0.1 0.2 1.2 2.1 4.7 2.5 1.6 2.0 5.4 5.9 3.0 5.2 6.5 5.6 7.8 5.1 5.9
0.0 0.0 0.0 0.0 0.0 1.1 0.3 1.6 1.5 0.4 0.1 0.5 4.1 5.2 2.2 3.8 4.2 5.0 2.3 1.4 0.5 1.3 0.2 0.2 0.2 0.2 0.2 0.2 1.5 1.1 3.5 5.1 3.2 4.9 6.5 3.6 9.7 14.7 10.3 7.7 7.9 10.2 16.6 12.4
0.0 0.2 0.7 1.4 2.0 2.1 2.8 2.9 2.3 2.0 0.3 3.9 6.3 7.4 6.6 2.8 4.1 6.6 3.4 1.3 0.2 0.4 0.2 0.1 0.4 0.8 0.4 0.4 0.6 6.5 6.1 9.1 9.4 6.3 9.7 13.0 17.5 13.6 14.6 16.1 14.6 17.7 20.4 15.8
0.1 0.3 1.5 0.9 2.1 0.7 1.6 1.1 0.9 2.3 2.3 5.3 9.8 12.1 8.7 1.8 3.5 3.2 5.1 1.7 0.8 1.9 1.6 1.9 1.2 3.0 2.5 4.8 2.1 8.6 6.9 5.8 7.0 6.7 7.6 11.9 13.9 21.7 22.5 19.3 18.7 21.1 20.5 20.6
0.1 0.2 0.5 1.7 1.6 0.5 0.8 1.4 3.7 3.9 8.1 6.7 8.0 4.4 3.2 1.6 1.8 3.9 3.7 0.2 1.3 3.8 1.5 3.9 4.6 5.3 5.6 10.3 9.9 11.3 11.7 11.6 11.4 10.9 11.6 17.9 17.9 29.4 16.8 16.0 18.3 19.0 25.4 17.3
0.1 0.1 0.3 0.9 0.9 0.6 0.6 0.1 0.2 0.7 6.4 2.0 3.5 6.7 1.9 5.9 8.5 1.5 2.0 5.6 5.7 17.8 10.7 10.4 9.0 6.1 6.6 12.6 13.3 16.5 15.5 17.0 17.8 20.6 10.5 9.2 26.8 22.9 19.3 27.4 17.1 19.5 21.5 18.3
0.3 0.2 0.5 0.7 0.3 0.6 0.1 0.1 0.3 0.3 0.4 0.5 0.3 0.3 0.7 1.5 8.0 3.7 7.0 6.7 6.5 5.5 9.0 7.9 6.4 7.2 17.5 18.9 19.0 20.1 19.9 17.6 20.8 23.5 16.5 23.6 21.8 30.9 28.8 23.5 27.3 27.9 29.0 24.2
0.2 0.5 0.4 0.1 0.3 0.5 0.7 0.8 2.2 1.4 1.8 5.8 3.5 12.9 9.7 5.1 4.5 4.7 6.6 6.8 5.1 6.3 6.7 16.7 20.8 20.5 19.4 13.4 17.6 18.4 14.4 11.6 15.4 16.8 19.0 18.8 18.1 15.6 19.5 17.8 24.5 30.4 37.8 41.0
0.9 0.3 1.0 0.9 1.0 1.2 1.5 1.2 3.9 5.5 7.7 11.1 9.1 9.5 5.8 9.7 12.9 7.7 7.8 12.1 13.1 13.1 16.5 20.1 17.3 11.6 10.6 16.8 15.1 13.5 12.5 13.9 11.1 10.4 22.9 26.6 25.5 34.4 30.1 29.8 34.5 36.1 33.0 28.7

GFSNGP_prec_sndepth_027.txt.gz
Snowfall_Accumulation
0.0 0.0 0.0 0.0 0.0 0.0 0.0 0.0 0.3 0.0 0.0 0.0 0.0 0.0 0.0 0.0 0.0 0.0 0.0 0.0 0.0 0.0 0.0 0.0 0.0 0.0 0.0 0.0 0.0 0.0 0.0 0.0 0.0 0.0 0.0 0.0 0.0 0.0 0.0 0.0 0.0 0.0 0.0 0.0
0.0 0.0 0.0 0.0 0.0 0.0 0.0 0.0 0.0 0.0 0.0 0.0 0.0 0.0 0.0 0.0 0.0 0.0 0.0 0.0 0.0 0.0 0.0 0.0 0.0 0.0 0.0 0.0 0.0 0.0 0.0 0.0 0.0 0.0 0.0 0.0 0.0 0.0 0.0 0.0 0.0 0.0 0.0 0.0
0.1 0.0 0.0 1.0 0.0 0.0 0.0 0.0 0.0 0.2 0.0 0.0 0.0 0.0 0.0 0.0 0.0 0.0 0.0 0.0 0.0 0.0 0.0 0.0 0.0 0.0 0.0 0.0 0.0 0.0 0.0 0.0 0.0 0.0 0.0 0.0 0.0 0.0 0.0 0.0 0.0 0.0 0.0 0.0
1.7 0.9 3.0 0.0 0.0 0.0 0.0 0.0 0.0 0.0 0.0 0.0 0.0 0.0 0.0 0.0 0.0 0.0 0.0 0.0 0.0 0.0 0.0 0.0 0.0 0.0 0.0 0.0 0.0 0.0 0.0 0.0 0.0 0.0 0.0 0.0 0.0 0.0 0.0 0.0 0.0 0.0 0.0 0.0
4.1 0.8 0.0 0.0 0.0 0.0 0.0 0.0 0.0 0.0 0.0 0.0 0.0 0.0 0.0 0.0 0.0 0.0 0.0 0.0 0.0 0.0 0.0 0.0 0.0 0.0 0.0 0.0 0.0 0.0 0.0 0.0 0.0 0.0 0.0 0.0 0.0 0.0 0.0 0.0 0.0 0.0 0.0 0.0
1.4 1.1 3.1 0.0 0.0 0.0 0.0 0.1 0.0 0.0 0.0 0.0 0.0 0.5 0.0 0.0 0.0 0.0 0.0 0.0 0.0 0.0 0.0 0.0 0.0 0.0 0.0 0.0 0.0 0.0 0.0 0.0 0.0 0.0 0.0 0.0 0.0 0.0 0.0 0.0 0.0 0.0 0.0 0.0
1.7 2.8 0.8 0.0 0.0 0.0 0.7 0.1 0.0 0.0 0.0 0.0 0.0 0.0 0.0 0.0 0.0 0.0 0.0 0.0 0.0 0.0 0.0 0.0 0.0 0.0 0.0 0.0 0.0 0.0 0.0 0.0 0.0 0.0 0.0 0.0 0.0 0.0 0.0 0.0 0.0 0.1 0.1 0.1
1.5 2.6 3.1 0.0 0.0 0.2 0.2 0.0 0.0 0.0 0.0 0.0 0.0 0.0 0.0 0.0 0.0 0.0 0.0 0.0 0.0 0.0 0.0 0.0 0.0 0.0 0.0 0.0 0.0 0.0 0.0 0.0 0.0 0.0 0.0 0.0 0.0 0.0 0.0 0.0 0.0 0.1 1.5 0.6
0.1 0.7 0.0 0.0 0.0 0.0 0.0 0.0 0.0 0.0 0.0 0.0 0.0 0.0 0.0 0.0 0.0 0.0 0.0 0.0 0.0 0.0 0.0 0.0 0.0 0.0 0.0 0.0 0.0 0.0 0.0 0.0 0.0 0.0 0.0 0.0 0.0 0.0 0.0 0.0 0.5 0.2 0.8 1.6
0.1 0.0 0.0 0.0 0.0 0.0 0.0 0.0 0.0 0.0 0.0 0.0 0.0 0.0 0.0 0.0 0.0 0.0 0.0 0.0 0.0 0.0 0.0 0.0 0.0 0.0 0.0 0.0 0.0 0.0 0.0 0.0 0.0 0.0 0.0 0.0 0.0 0.0 0.0 0.5 0.9 0.8 1.1 1.0
0.0 0.0 0.0 0.0 0.0 0.0 0.0 0.0 0.0 0.0 0.0 0.0 0.0 0.0 0.0 0.0 0.0 0.0 0.0 0.0 0.0 0.0 0.0 0.0 0.0 0.0 0.0 0.0 0.0 0.0 0.0 0.0 0.0 0.2 0.0 0.0 0.0 0.0 0.5 0.0 0.4 1.0 1.0 1.0
0.6 0.0 0.0 0.0 0.0 0.0 0.0 0.0 0.0 0.0 0.0 0.0 0.0 0.0 0.0 0.0 0.0 0.0 0.0 0.0 0.0 0.0 0.0 0.0 0.0 0.0 0.0 0.0 0.0 0.0 0.0 0.3 0.5 0.7 0.5 0.0 0.0 0.0 nan nan nan nan nan 4.3
0.0 0.0 0.0 0.0 0.0 0.0 0.0 0.0 0.0 0.0 0.0 0.0 0.0 0.0 0.0 0.0 0.0 nan 0.0 0.0 0.0 0.0 0.0 0.0 0.0 0.0 0.0 0.0 0.1 0.1 0.1 0.1 0.7 0.7 0.7 0.8 0.9 1.0 1.4 0.9 nan nan nan nan
0.0 0.0 0.0 0.0 0.0 0.0 0.0 0.0 0.0 0.0 0.0 0.0 0.0 0.0 0.0 0.0 0.0 0.0 0.0 0.0 0.0 0.0 0.0 0.0 0.0 0.0 0.0 0.0 0.0 0.1 0.1 0.0 0.8 0.7 0.8 1.0 1.6 1.7 1.6 2.5 4.3 3.3 nan nan
0.0 0.0 0.0 0.0 0.0 0.0 0.0 0.0 0.0 0.0 0.0 0.0 0.0 0.0 0.0 0.0 0.0 0.0 0.0 0.0 0.0 0.0 0.0 0.0 0.0 0.0 0.0 0.0 0.0 0.1 0.2 0.6 1.2 2.1 2.3 2.2 2.4 2.2 1.9 2.7 3.0 2.7 2.3 1.1
0.0 0.0 0.0 0.0 0.0 0.0 0.0 0.0 0.0 0.0 0.0 0.0 0.0 0.0 0.0 0.0 0.0 0.0 0.0 0.0 0.4 0.4 0.0 3.5 0.6 0.0 0.0 0.0 0.0 0.0 0.3 0.0 1.0 1.8 2.1 2.1 2.3 2.3 2.0 2.6 3.4 3.3 2.9 2.8
0.0 0.0 0.0 0.0 0.0 0.0 0.0 0.0 0.0 0.0 0.0 0.0 0.0 0.1 0.1 0.2 0.2 0.1 0.1 0.2 1.7 2.1 1.1 0.8 0.3 0.0 0.1 0.0 0.0 0.3 0.6 1.2 0.0 2.2 1.6 1.8 2.5 3.3 2.5 3.4 3.6 3.2 5.3 9.1
0.0 0.0 0.0 0.0 0.0 0.0 0.0 0.0 0.0 0.1 0.1 0.0 2.0 3.5 4.4 3.9 1.1 0.9 0.7 0.9 2.1 2.0 0.6 0.3 0.2 0.1 0.0 0.0 0.1 0.4 1.2 1.4 1.9 2.5 2.1 3.4 2.3 2.3 3.3 3.3 3.4 4.2 5.0 14.2
0.0 0.0 0.0 0.0 0.0 0.0 0.1 0.2 0.4 0.8 2.6 2.2 3.8 3.0 2.7 3.2 1.2 0.8 0.9 4.8 5.6 0.9 0.2 0.2 0.0 0.2 0.1 0.1 0.2 1.2 2.1 4.8 2.5 1.6 2.0 5.4 5.9 3.0 5.2 6.6 5.7 7.9 5.3 6.1
0.0 0.0 0.0 0.0 0.0 1.1 0.3 1.6 1.5 0.4 0.1 0.5 4.1 5.2 2.2 3.9 4.2 5.0 2.3 1.4 0.5 1.3 0.2 0.2 0.2 0.2 0.2 0.2 1.5 1.0 3.5 5.1 3.2 4.9 6.5 3.6 9.7 14.7 10.3 7.7 7.9 10.3 16.6 12.5
0.0 0.2 0.7 1.4 2.0 2.1 2.8 2.9 2.3 2.0 0.3 3.9 6.3 7.3 6.6 2.8 4.1 6.6 3.4 1.3 0.2 0.4 0.2 0.1 0.4 0.8 0.4 0.4 0.6 6.5 6.1 9.1 9.4 6.3 9.7 13.0 17.5 13.6 14.7 16.1 14.6 17.7 20.4 15.8
0.2 0.4 1.5 0.9 2.1 0.7 1.6 1.1 0.9 2.3 2.3 5.3 9.8 12.1 8.7 1.8 3.5 3.2 5.1 1.7 0.8 1.9 1.7 1.9 1.2 3.0 2.5 4.8 2.1 8.6 6.9 5.8 7.0 6.7 7.6 11.9 13.9 21.7 22.5 19.3 18.7 21.1 20.5 20.5
0.4 0.4 0.7 1.7 1.6 0.5 0.8 1.4 3.7 3.8 8.1 6.7 8.0 4.4 3.2 1.6 1.8 3.9 3.7 0.3 1.3 3.8 1.5 3.9 4.6 5.3 5.6 10.3 9.9 11.3 11.7 11.6 11.4 10.9 11.6 17.9 17.9 29.3 16.8 15.9 18.3 18.9 25.3 17.3
0.1 0.1 0.3 0.9 0.9 0.6 0.6 0.1 0.2 0.7 6.3 2.0 3.5 6.7 1.9 5.9 8.5 1.5 2.0 5.6 5.7 17.8 10.8 10.4 9.0 6.1 6.6 12.6 13.3 16.5 15.5 17.0 17.8 20.6 10.5 9.2 26.8 22.8 19.3 27.3 17.1 19.4 21.5 18.3
0.3 0.2 0.5 0.7 0.3 0.6 0.1 0.1 0.3 0.3 0.4 0.5 0.3 0.3 0.7 1.5 8.0 3.7 7.0 6.7 6.5 5.5 9.0 7.9 6.4 7.2 17.5 18.9 18.9 20.1 19.9 17.6 20.8 23.5 16.5 23.5 21.8 30.8 28.7 23.5 27.2 27.8 28.9 24.2
0.4 0.6 0.4 0.1 0.4 0.6 0.8 0.9 2.3 1.5 1.9 5.8 3.5 13.0 9.8 5.1 4.5 4.7 6.6 6.8 5.1 6.3 6.7 16.7 20.8 20.5 19.4 13.4 17.6 18.4 14.4 11.6 15.4 16.8 18.9 18.8 18.0 15.5 19.4 17.8 24.4 30.3 37.6 40.8
1.3 0.5 1.4 1.2 1.4 1.6 1.8 1.3 4.0 5.7 7.7 11.1 9.1 9.5 5.9 9.7 12.8 7.7 7.8 12.1 13.1 13.1 16.5 20.1 17.3 11.6 10.6 16.8 15.1 13.5 12.5 13.9 11.1 10.4 22.8 26.5 25.4 34.3 30.0 29.7 34.4 36.0 32.9 28.6